EW8144 Weather Reports


time (UTC)temp
C
wind
direction
speed
KPH
gust
KPH
rain 1hr
cm
rain 24hr
cm
rain mn
cm
humidity
%
barometer
mb
20190420063931 12 101 8.0 16.1 0.00 0.00 0.00 58 1029.9
20190420063807 12 106 9.7 16.1 0.00 0.00 0.00 57 1029.9
20190420063535 11 91 9.7 16.1 0.00 0.00 0.00 58 1029.9
20190420063432 11 103 12.9 16.1 0.00 0.00 0.00 57 1029.9
20190420063251 11 98 9.7 16.1 0.00 0.00 0.00 58 1029.9
20190420063149 11 95 9.7 16.1 0.00 0.00 0.00 58 1029.9
20190420063052 11 105 9.7 16.1 0.00 0.00 0.00 58 1029.9
20190420062947 11 90 9.7 16.1 0.00 0.00 0.00 57 1029.9
20190420062847 11 99 11.3 16.1 0.00 0.00 0.00 58 1029.9
20190420062744 11 98 11.3 16.1 0.00 0.00 0.00 59 1029.9
20190420062643 11 109 9.7 16.1 0.00 0.00 0.00 59 1029.8
20190420062537 11 99 8.0 14.5 0.00 0.00 0.00 61 1029.9
20190420062402 11 90 9.7 14.5 0.00 0.00 0.00 60 1029.8
20190420062230 11 109 9.7 12.9 0.00 0.00 0.00 61 1029.8
20190420062125 11 65 9.7 12.9 0.00 0.00 0.00 62 1029.8
20190420062023 11 81 8.0 12.9 0.00 0.00 0.00 64 1029.8
20190420061920 11 93 6.4 11.3 0.00 0.00 0.00 65 1029.8
20190420061805 11 105 6.4 9.7 0.00 0.00 0.00 65 1029.8
20190420061705 11 103 6.4 14.5 0.00 0.00 0.00 65 1029.8
20190420061555 11 102 6.4 14.5 0.00 0.00 0.00 65 1029.8
20190420061431 11 91 6.4 14.5 0.00 0.00 0.00 65 1029.8
20190420061302 10 103 6.4 14.5 0.00 0.00 0.00 65 1029.7
20190420061144 10 95 6.4 14.5 0.00 0.00 0.00 65 1029.7
20190420061033 10 110 9.7 14.5 0.00 0.00 0.00 65 1029.8
20190420060928 10 98 9.7 14.5 0.00 0.00 0.00 65 1029.8
20190420060826 10 91 9.7 14.5 0.00 0.00 0.00 65 1029.7
20190420060726 10 97 8.0 14.5 0.00 0.00 0.00 65 1029.8
20190420060625 10 107 6.4 14.5 0.00 0.00 0.00 65 1029.7
20190420060421 10 89 8.0 14.5 0.00 0.00 0.00 65 1029.7
20190420060319 10 82 8.0 14.5 0.00 0.00 0.00 65 1029.7
20190420060147 10 104 9.7 14.5 0.00 0.00 0.00 65 1029.7
20190420060050 10 108 8.0 14.5 0.00 0.00 0.00 66 1029.7
20190420060038 10 99 6.4 14.5 0.00 0.00 0.00 66 1029.6
20190420055934 10 101 6.4 11.3 0.00 0.00 0.00 67 1029.7
20190420055834 10 112 4.8 11.3 0.00 0.00 0.00 67 1029.7
20190420055736 10 103 4.8 11.3 0.00 0.00 0.00 66 1029.7
20190420055635 10 137 6.4 11.3 0.00 0.00 0.00 67 1029.8
20190420055533 10 106 6.4 11.3 0.00 0.00 0.00 67 1029.7
20190420055431 10 111 6.4 11.3 0.00 0.00 0.00 67 1029.7
20190420055329 10 111 8.0 11.3 0.00 0.00 0.00 67 1029.8
20190420055228 10 90 6.4 11.3 0.00 0.00 0.00 66 1029.8
20190420055056 10 116 6.4 9.7 0.00 0.00 0.00 66 1029.7
20190420054951 10 90 6.4 9.7 0.00 0.00 0.00 67 1029.7
20190420054846 10 94 8.0 9.7 0.00 0.00 0.00 67 1029.8
20190420054552 9 124 6.4 11.3 0.00 0.00 0.00 66 1029.7
20190420054421 9 114 6.4 11.3 0.00 0.00 0.00 66 1029.6
20190420054246 9 95 6.4 11.3 0.00 0.00 0.00 67 1029.7
20190420054112 9 100 4.8 9.7 0.00 0.00 0.00 67 1029.7
20190420053946 9 95 4.8 9.7 0.00 0.00 0.00 66 1029.7
20190420053826 9 96 4.8 9.7 0.00 0.00 0.00 68 1029.7
20190420053710 9 85 4.8 9.7 0.00 0.00 0.00 67 1029.7
20190420053536 9 112 4.8 9.7 0.00 0.00 0.00 67 1029.7
20190420053412 8 106 4.8 6.4 0.00 0.00 0.00 67 1029.6
20190420053253 8 109 3.2 6.4 0.00 0.00 0.00 67 1029.6
20190420053120 8 125 3.2 11.3 0.00 0.00 0.00 67 1029.6
20190420052849 8 122 3.2 11.3 0.00 0.00 0.00 68 1029.6
20190420052749 8 116 3.2 11.3 0.00 0.00 0.00 69 1029.6
20190420052648 8 87 3.2 11.3 0.00 0.00 0.00 69 1029.6
20190420052529 8 141 3.2 11.3 0.00 0.00 0.00 69 1029.6
20190420052354 8 143 3.2 11.3 0.00 0.00 0.00 71 1029.6
20190420052250 8 106 4.8 9.7 0.00 0.00 0.00 71 1029.6
20190420052126 8 103 4.8 9.7 0.00 0.00 0.00 70 1029.6
20190420052025 8 105 3.2 9.7 0.00 0.00 0.00 69 1029.6
20190420051923 8 106 4.8 9.7 0.00 0.00 0.00 70 1029.6
20190420051823 8 100 4.8 9.7 0.00 0.00 0.00 70 1029.6
20190420051656 7 122 4.8 9.7 0.00 0.00 0.00 70 1029.6
20190420051554 7 87 4.8 9.7 0.00 0.00 0.00 70 1029.6
20190420051452 7 132 4.8 9.7 0.00 0.00 0.00 71 1029.6
20190420051352 7 128 4.8 9.7 0.00 0.00 0.00 72 1029.6
20190420051230 7 104 4.8 9.7 0.00 0.00 0.00 72 1029.6
20190420051102 7 103 3.2 9.7 0.00 0.00 0.00 72 1029.6
20190420050958 7 134 3.2 9.7 0.00 0.00 0.00 73 1029.6
20190420050838 7 107 4.8 8.0 0.00 0.00 0.00 73 1029.6
20190420050735 7 95 4.8 8.0 0.00 0.00 0.00 73 1029.5
20190420050634 7 106 4.8 9.7 0.00 0.00 0.00 73 1029.5
20190420050535 7 86 3.2 9.7 0.00 0.00 0.00 74 1029.5
20190420050510 6 85 3.2 9.7 0.00 0.00 0.00 74 1029.5
20190420050424 7 95 3.2 9.7 0.00 0.00 0.00 74 1029.5
20190420050323 6 97 4.8 9.7 0.00 0.00 0.00 75 1029.5
20190420050159 6 98 4.8 9.7 0.00 0.00 0.00 75 1029.5
20190420050059 6 94 4.8 9.7 0.00 0.00 0.00 76 1029.5
20190420045956 6 101 4.8 9.7 0.00 0.00 0.00 76 1029.5
20190420045852 6 95 4.8 8.0 0.00 0.00 0.00 77 1029.5
20190420045755 6 99 4.8 8.0 0.00 0.00 0.00 77 1029.5
20190420045655 6 88 4.8 8.0 0.00 0.00 0.00 78 1029.5
20190420045553 6 104 4.8 8.0 0.00 0.00 0.00 78 1029.5
20190420045451 6 93 4.8 8.0 0.00 0.00 0.00 78 1029.5
20190420045348 6 95 4.8 8.0 0.00 0.00 0.00 78 1029.5
20190420045212 5 99 3.2 8.0 0.00 0.00 0.00 79 1029.4
20190420045054 5 93 3.2 11.3 0.00 0.00 0.00 80 1029.5
20190420044950 5 80 4.8 11.3 0.00 0.00 0.00 80 1029.5
20190420044846 5 98 4.8 11.3 0.00 0.00 0.00 80 1029.5
20190420044724 5 78 4.8 11.3 0.00 0.00 0.00 81 1029.5
20190420044554 5 86 6.4 11.3 0.00 0.00 0.00 81 1029.4
20190420044454 5 103 6.4 11.3 0.00 0.00 0.00 81 1029.4
20190420044352 5 81 6.4 11.3 0.00 0.00 0.00 81 1029.5
20190420044229 5 86 8.0 11.3 0.00 0.00 0.00 82 1029.5
20190420044055 5 104 6.4 11.3 0.00 0.00 0.00 82 1029.4
20190420043949 4 92 6.4 11.3 0.00 0.00 0.00 83 1029.5
20190420043832 4 87 8.0 11.3 0.00 0.00 0.00 83 1029.4
20190420043731 4 77 8.0 11.3 0.00 0.00 0.00 83 1029.5
20190420043627 4 93 8.0 11.3 0.00 0.00 0.00 84 1029.4
20190420043523 3 95 6.4 11.3 0.00 0.00 0.00 84 1029.4
20190420043417 3 94 6.4 11.3 0.00 0.00 0.00 85 1029.4
20190420043313 3 85 6.4 11.3 0.00 0.00 0.00 84 1029.4
20190420043145 3 85 6.4 11.3 0.00 0.00 0.00 85 1029.4
20190420043129 3 93 6.4 9.7 0.00 0.00 0.00 84 1029.3
20190420043045 3 92 8.0 11.3 0.00 0.00 0.00 85 1029.4
20190420042929 3 99 6.4 9.7 0.00 0.00 0.00 83 1029.4
20190420042827 3 87 6.4 9.7 0.00 0.00 0.00 82 1029.4
20190420042726 3 99 4.8 8.0 0.00 0.00 0.00 81 1029.4
20190420042624 3 108 3.2 4.8 0.00 0.00 0.00 80 1029.4
20190420042515 3 126 1.6 4.8 0.00 0.00 0.00 79 1029.4
20190420042355 3 128 1.6 3.2 0.00 0.00 0.00 77 1029.4
20190420042256 3 128 0.0 3.2 0.00 0.00 0.00 77 1029.4
20190420042132 3 128 0.0 3.2 0.00 0.00 0.00 76 1029.4
20190420042027 3 128 1.6 3.2 0.00 0.00 0.00 76 1029.4
20190420042002 3 128 0.0 3.2 0.00 0.00 0.00 75 1029.3
20190420041914 3 128 1.6 3.2 0.00 0.00 0.00 75 1029.4
20190420041754 3 128 0.0 3.2 0.00 0.00 0.00 74 1029.4
20190420041629 4 128 0.0 3.2 0.00 0.00 0.00 74 1029.4
20190420041529 4 128 1.6 3.2 0.00 0.00 0.00 74 1029.4
20190420041424 4 128 1.6 3.2 0.00 0.00 0.00 74 1029.4
20190420041323 4 128 1.6 3.2 0.00 0.00 0.00 73 1029.4
20190420041218 5 128 1.6 3.2 0.00 0.00 0.00 72 1029.3
20190420041047 5 128 0.0 3.2 0.00 0.00 0.00 71 1029.3
20190420040943 5 130 0.0 3.2 0.00 0.00 0.00 71 1029.3
20190420040842 5 130 0.0 4.8 0.00 0.00 0.00 71 1029.4
20190420040741 5 130 0.0 4.8 0.00 0.00 0.00 71 1029.3
20190420040612 5 130 0.0 4.8 0.00 0.00 0.00 71 1029.3
20190420040447 5 130 1.6 6.4 0.00 0.00 0.00 71 1029.3
20190420040309 5 130 3.2 6.4 0.00 0.00 0.00 73 1029.3
20190420040133 5 93 3.2 11.3 0.00 0.00 0.00 77 1029.3
20190420040032 5 92 3.2 11.3 0.00 0.00 0.00 77 1029.3
20190420035929 5 90 3.2 12.9 0.00 0.00 0.00 77 1029.3
20190420035832 5 90 3.2 12.9 0.00 0.00 0.00 77 1029.3
20190420035732 5 91 4.8 12.9 0.00 0.00 0.00 77 1029.3
20190420035632 5 86 4.8 12.9 0.00 0.00 0.00 77 1029.3
20190420035518 5 85 6.4 12.9 0.00 0.00 0.00 77 1029.3
20190420035419 5 86 6.4 12.9 0.00 0.00 0.00 77 1029.3
20190420035319 5 85 6.4 12.9 0.00 0.00 0.00 78 1029.2
20190420035215 5 71 8.0 12.9 0.00 0.00 0.00 78 1029.3
20190420035053 5 85 8.0 12.9 0.00 0.00 0.00 78 1029.2
20190420034952 5 90 6.4 12.9 0.00 0.00 0.00 78 1029.3
20190420034711 5 99 8.0 12.9 0.00 0.00 0.00 78 1029.3
20190420034609 5 93 8.0 11.3 0.00 0.00 0.00 79 1029.2
20190420034503 5 93 6.4 11.3 0.00 0.00 0.00 79 1029.2
20190420034345 5 82 6.4 11.3 0.00 0.00 0.00 79 1029.2
20190420034207 5 88 6.4 12.9 0.00 0.00 0.00 80 1029.2
20190420034045 5 94 6.4 12.9 0.00 0.00 0.00 80 1029.2
20190420033938 5 94 6.4 12.9 0.00 0.00 0.00 80 1029.2
20190420033836 5 90 6.4 12.9 0.00 0.00 0.00 80 1029.2
20190420033740 5 91 6.4 12.9 0.00 0.00 0.00 81 1029.2
20190420033637 5 91 6.4 12.9 0.00 0.00 0.00 81 1029.2
20190420033536 5 101 8.0 12.9 0.00 0.00 0.00 81 1029.2
20190420033430 5 91 8.0 12.9 0.00 0.00 0.00 82 1029.2
20190420033319 5 95 6.4 12.9 0.00 0.00 0.00 82 1029.2
20190420033153 4 89 4.8 9.7 0.00 0.00 0.00 82 1029.2
20190420033033 4 107 6.4 9.7 0.00 0.00 0.00 83 1029.2
20190420032927 4 105 6.4 11.3 0.00 0.00 0.00 82 1029.2
20190420032826 4 101 6.4 11.3 0.00 0.00 0.00 82 1029.2
20190420032726 4 96 6.4 11.3 0.00 0.00 0.00 82 1029.2
20190420032616 4 85 6.4 8.0 0.00 0.00 0.00 82 1029.2
20190420032504 4 99 4.8 9.7 0.00 0.00 0.00 82 1029.2
20190420032352 4 97 4.8 9.7 0.00 0.00 0.00 82 1029.2
20190420032252 4 103 4.8 9.7 0.00 0.00 0.00 81 1029.2
20190420032154 4 107 3.2 8.0 0.00 0.00 0.00 81 1029.2
20190420032041 4 95 3.2 6.4 0.00 0.00 0.00 80 1029.2
20190420031941 4 96 1.6 6.4 0.00 0.00 0.00 80 1029.3
20190420031841 4 97 0.0 6.4 0.00 0.00 0.00 80 1029.2
20190420031745 4 97 1.6 6.4 0.00 0.00 0.00 79 1029.3
20190420031645 4 97 1.6 6.4 0.00 0.00 0.00 80 1029.3
20190420031544 5 97 3.2 6.4 0.00 0.00 0.00 80 1029.3
20190420031442 5 97 3.2 6.4 0.00 0.00 0.00 80 1029.3
20190420031333 5 97 1.6 6.4 0.00 0.00 0.00 79 1029.3
20190420031233 5 97 0.0 6.4 0.00 0.00 0.00 80 1029.3
20190420031119 5 97 1.6 6.4 0.00 0.00 0.00 80 1029.3
20190420031016 5 97 3.2 6.4 0.00 0.00 0.00 80 1029.3
20190420030917 5 97 3.2 6.4 0.00 0.00 0.00 80 1029.3
20190420030809 5 96 3.2 6.4 0.00 0.00 0.00 81 1029.3
20190420030710 5 96 3.2 9.7 0.00 0.00 0.00 81 1029.3
20190420030610 5 96 4.8 9.7 0.00 0.00 0.00 81 1029.3
20190420030509 5 94 3.2 11.3 0.00 0.00 0.00 81 1029.3
20190420030413 5 98 3.2 11.3 0.00 0.00 0.00 81 1029.2
20190420030311 5 98 3.2 11.3 0.00 0.00 0.00 81 1029.3
20190420030200 5 99 4.8 11.3 0.00 0.00 0.00 81 1029.3
20190420030038 5 101 4.8 12.9 0.00 0.00 0.00 81 1029.3
20190420025938 5 105 4.8 12.9 0.00 0.00 0.00 80 1029.3
20190420025839 5 103 6.4 12.9 0.00 0.00 0.00 80 1029.3
20190420025745 5 97 6.4 12.9 0.00 0.00 0.00 80 1029.3
20190420025635 5 91 4.8 12.9 0.00 0.00 0.00 80 1029.3
20190420025536 5 79 6.4 12.9 0.00 0.00 0.00 80 1029.3
20190420025436 5 84 8.0 12.9 0.00 0.00 0.00 80 1029.3
20190420025338 5 95 9.7 12.9 0.00 0.00 0.00 79 1029.3
20190420025238 5 95 11.3 12.9 0.00 0.00 0.00 79 1029.3
20190420025111 5 97 9.7 12.9 0.00 0.00 0.00 78 1029.3
20190420025009 5 91 8.0 12.9 0.00 0.00 0.00 78 1029.2
20190420024909 5 97 8.0 12.9 0.00 0.00 0.00 78 1029.2
20190420024808 5 97 8.0 12.9 0.00 0.00 0.00 78 1029.2
20190420024710 5 81 8.0 9.7 0.00 0.00 0.00 78 1029.2
20190420024643 5 86 6.4 11.3 0.00 0.00 0.00 78 1029.2
20190420024613 5 103 8.0 11.3 0.00 0.00 0.00 78 1029.2
20190420024504 5 86 6.4 11.3 0.00 0.00 0.00 79 1029.2
20190420024404 5 91 6.4 11.3 0.00 0.00 0.00 79 1029.2
20190420024303 5 96 6.4 11.3 0.00 0.00 0.00 79 1029.3
20190420024158 5 88 6.4 9.7 0.00 0.00 0.00 79 1029.3
20190420024055 5 96 6.4 9.7 0.00 0.00 0.00 79 1029.2
20190420023952 5 102 6.4 9.7 0.00 0.00 0.00 79 1029.2
20190420023852 5 93 6.4 9.7 0.00 0.00 0.00 79 1029.2
20190420023754 5 91 6.4 9.7 0.00 0.00 0.00 80 1029.2
20190420023644 5 95 6.4 9.7 0.00 0.00 0.00 80 1029.2
20190420023545 5 97 6.4 9.7 0.00 0.00 0.00 80 1029.2
20190420023443 5 99 8.0 9.7 0.00 0.00 0.00 81 1029.2
20190420023343 5 98 8.0 11.3 0.00 0.00 0.00 81 1029.3
20190420023244 5 99 6.4 11.3 0.00 0.00 0.00 81 1029.3
20190420023144 5 92 6.4 9.7 0.00 0.00 0.00 81 1029.2
20190420023045 5 101 4.8 9.7 0.00 0.00 0.00 82 1029.3
20190420022945 5 94 6.4 8.0 0.00 0.00 0.00 81 1029.3
20190420022833 5 94 4.8 8.0 0.00 0.00 0.00 81 1029.3
20190420022735 5 97 4.8 9.7 0.00 0.00 0.00 81 1029.2
20190420022634 5 97 6.4 9.7 0.00 0.00 0.00 81 1029.3
20190420022528 5 94 4.8 9.7 0.00 0.00 0.00 81 1029.3
20190420022406 5 96 3.2 9.7 0.00 0.00 0.00 81 1029.3
20190420022303 5 96 3.2 9.7 0.00 0.00 0.00 82 1029.3
20190420022130 5 96 4.8 9.7 0.00 0.00 0.00 81 1029.3
20190420022003 5 99 4.8 6.4 0.00 0.00 0.00 81 1029.4
20190420021901 5 107 3.2 6.4 0.00 0.00 0.00 81 1029.4
20190420021805 5 97 3.2 6.4 0.00 0.00 0.00 81 1029.4
20190420021705 5 97 3.2 6.4 0.00 0.00 0.00 81 1029.4
20190420021607 5 97 4.8 6.4 0.00 0.00 0.00 81 1029.4
20190420021603 5 99 3.2 6.4 0.00 0.00 0.00 81 1029.3
20190420021453 5 99 3.2 6.4 0.00 0.00 0.00 81 1029.4
20190420021354 5 99 1.6 6.4 0.00 0.00 0.00 81 1029.4
20190420021255 5 99 3.2 9.7 0.00 0.00 0.00 80 1029.4
20190420021158 5 99 3.2 11.3 0.00 0.00 0.00 81 1029.4
20190420021008 5 99 1.6 11.3 0.00 0.00 0.00 81 1029.4
20190420020816 5 98 0.0 11.3 0.00 0.00 0.00 81 1029.4
20190420020651 5 98 3.2 11.3 0.00 0.00 0.00 81 1029.4
20190420020527 5 95 6.4 11.3 0.00 0.00 0.00 81 1029.3
20190420020346 5 97 6.4 12.9 0.00 0.00 0.00 81 1029.4
20190420020208 5 75 4.8 12.9 0.00 0.00 0.00 81 1029.3
20190420020002 5 78 4.8 12.9 0.00 0.00 0.00 81 1029.3
20190420015844 5 84 6.4 12.9 0.00 0.00 0.00 81 1029.4
20190420015659 5 85 8.0 12.9 0.00 0.00 0.00 81 1029.4
20190420015523 5 97 6.4 12.9 0.00 0.00 0.00 81 1029.4
20190420015404 5 68 6.4 12.9 0.00 0.00 0.00 81 1029.4
20190420015252 5 84 8.0 12.9 0.00 0.00 0.00 81 1029.4
20190420015141 5 76 6.4 12.9 0.00 0.00 0.00 81 1029.4
20190420014957 5 80 4.8 11.3 0.00 0.00 0.00 81 1029.4
20190420014853 5 72 4.8 11.3 0.00 0.00 0.00 81 1029.4
20190420014752 5 90 6.4 11.3 0.00 0.00 0.00 81 1029.4
20190420014647 5 87 8.0 11.3 0.00 0.00 0.00 81 1029.4
20190420014545 5 80 8.0 11.3 0.00 0.00 0.00 80 1029.4
20190420014443 5 80 9.7 11.3 0.00 0.00 0.00 80 1029.4
20190420014336 5 79 9.7 12.9 0.00 0.00 0.00 80 1029.4
20190420014236 5 76 8.0 14.5 0.00 0.00 0.00 80 1029.4
20190420014139 5 85 8.0 14.5 0.00 0.00 0.00 80 1029.4
20190420014039 5 84 8.0 14.5 0.00 0.00 0.00 80 1029.3
20190420013936 5 84 8.0 14.5 0.00 0.00 0.00 79 1029.4
20190420013837 5 63 8.0 14.5 0.00 0.00 0.00 79 1029.4
20190420013736 5 84 8.0 14.5 0.00 0.00 0.00 79 1029.4
20190420013637 5 85 8.0 14.5 0.00 0.00 0.00 79 1029.4
20190420013529 5 83 9.7 14.5 0.00 0.00 0.00 78 1029.4
20190420013432 5 92 8.0 14.5 0.00 0.00 0.00 78 1029.4
20190420013332 5 97 8.0 12.9 0.00 0.00 0.00 78 1029.4
20190420013231 6 101 8.0 12.9 0.00 0.00 0.00 78 1029.3
20190420013134 5 81 6.4 12.9 0.00 0.00 0.00 77 1029.3
20190420013130 6 105 8.0 12.9 0.00 0.00 0.00 77 1029.4
20190420012957 6 90 8.0 12.9 0.00 0.00 0.00 77 1029.4
20190420012900 6 89 6.4 12.9 0.00 0.00 0.00 76 1029.4
20190420012803 6 86 8.0 12.9 0.00 0.00 0.00 77 1029.4
20190420012704 6 87 8.0 12.9 0.00 0.00 0.00 76 1029.4
20190420012606 6 87 9.7 12.9 0.00 0.00 0.00 76 1029.4
20190420012454 6 101 9.7 12.9 0.00 0.00 0.00 76 1029.3
20190420012336 6 95 6.4 12.9 0.00 0.00 0.00 76 1029.4
20190420012236 6 94 4.8 12.9 0.00 0.00 0.00 76 1029.3
20190420012129 6 87 6.4 12.9 0.00 0.00 0.00 76 1029.3
20190420012007 6 97 6.4 12.9 0.00 0.00 0.00 76 1029.3
20190420011905 6 99 6.4 12.9 0.00 0.00 0.00 76 1029.4
20190420011804 6 100 6.4 12.9 0.00 0.00 0.00 76 1029.4
20190420011703 6 93 8.0 12.9 0.00 0.00 0.00 76 1029.4
20190420011608 6 99 8.0 12.9 0.00 0.00 0.00 77 1029.3
20190420011605 6 93 8.0 12.9 0.00 0.00 0.00 76 1029.4
20190420011456 6 89 8.0 12.9 0.00 0.00 0.00 77 1029.4
20190420011355 6 96 8.0 12.9 0.00 0.00 0.00 77 1029.3
20190420011254 6 89 8.0 12.9 0.00 0.00 0.00 77 1029.3
20190420011153 6 86 6.4 12.9 0.00 0.00 0.00 77 1029.4
20190420011034 6 80 6.4 12.9 0.00 0.00 0.00 77 1029.4
20190420011004 6 81 6.4 12.9 0.00 0.00 0.00 77 1029.3
20190420010922 6 96 6.4 12.9 0.00 0.00 0.00 78 1029.4
20190420010825 6 96 4.8 12.9 0.00 0.00 0.00 78 1029.4
20190420010724 6 78 4.8 12.9 0.00 0.00 0.00 78 1029.4
20190420010626 6 85 6.4 12.9 0.00 0.00 0.00 78 1029.4
20190420010527 6 77 9.7 12.9 0.00 0.00 0.00 78 1029.4
20190420010425 6 81 9.7 12.9 0.00 0.00 0.00 79 1029.4
20190420010317 6 95 8.0 11.3 0.00 0.00 0.00 79 1029.4
20190420010218 6 95 6.4 12.9 0.00 0.00 0.00 79 1029.4
20190420010119 6 89 6.4 12.9 0.00 0.00 0.00 79 1029.4
20190420010016 6 89 6.4 12.9 0.00 0.00 0.00 79 1029.4
20190420005913 6 86 6.4 12.9 0.00 0.00 0.00 80 1029.4
20190420005636 6 93 6.4 12.9 0.00 0.00 0.00 80 1029.4
20190420005538 6 97 8.0 12.9 0.00 0.00 0.00 80 1029.4
20190420005440 6 85 9.7 14.5 0.00 0.00 0.00 80 1029.4
20190420005339 6 91 9.7 14.5 0.00 0.00 0.00 80 1029.5
20190420005236 6 95 9.7 14.5 0.00 0.00 0.00 80 1029.4
20190420005136 6 91 8.0 14.5 0.00 0.00 0.00 80 1029.5
20190420005026 5 76 8.0 14.5 0.00 0.00 0.00 80 1029.5
20190420004920 5 97 6.4 14.5 0.00 0.00 0.00 81 1029.4
20190420004822 5 76 6.4 14.5 0.00 0.00 0.00 81 1029.4
20190420004726 5 78 8.0 14.5 0.00 0.00 0.00 81 1029.5
20190420004624 5 83 9.7 14.5 0.00 0.00 0.00 81 1029.4
20190420004524 5 66 8.0 14.5 0.00 0.00 0.00 81 1029.4
20190420004420 5 83 9.7 14.5 0.00 0.00 0.00 80 1029.5
20190420004319 5 87 9.7 14.5 0.00 0.00 0.00 80 1029.4
20190420004216 5 96 9.7 14.5 0.00 0.00 0.00 80 1029.5
20190420004111 5 87 8.0 12.9 0.00 0.00 0.00 80 1029.4
20190420003947 5 76 8.0 12.9 0.00 0.00 0.00 80 1029.5
20190420003847 5 87 8.0 12.9 0.00 0.00 0.00 80 1029.5
20190420003745 5 76 8.0 12.9 0.00 0.00 0.00 80 1029.5
20190420003645 5 84 8.0 12.9 0.00 0.00 0.00 80 1029.5
20190420003536 5 93 8.0 12.9 0.00 0.00 0.00 80 1029.5
20190420003438 5 78 9.7 12.9 0.00 0.00 0.00 80 1029.5
20190420003338 5 92 8.0 12.9 0.00 0.00 0.00 80 1029.5
20190420003238 5 92 6.4 11.3 0.00 0.00 0.00 80 1029.5
20190420003137 5 84 6.4 12.9 0.00 0.00 0.00 80 1029.5
20190420003017 5 80 6.4 12.9 0.00 0.00 0.00 80 1029.5
20190420002906 5 90 8.0 12.9 0.00 0.00 0.00 80 1029.5
20190420002810 6 89 8.0 12.9 0.00 0.00 0.00 80 1029.6
20190420002708 6 91 8.0 12.9 0.00 0.00 0.00 81 1029.6
20190420002556 6 78 8.0 12.9 0.00 0.00 0.00 81 1029.5
20190420002257 5 94 6.4 11.3 0.00 0.00 0.00 81 1029.6
20190420002155 5 90 6.4 8.0 0.00 0.00 0.00 81 1029.6
20190420002056 5 84 6.4 8.0 0.00 0.00 0.00 81 1029.6
20190420001959 5 89 6.4 8.0 0.00 0.00 0.00 81 1029.6
20190420001859 5 86 4.8 6.4 0.00 0.00 0.00 81 1029.5
20190420001801 5 83 4.8 6.4 0.00 0.00 0.00 81 1029.6
20190420001650 5 83 4.8 6.4 0.00 0.00 0.00 81 1029.6
20190420001551 5 83 4.8 6.4 0.00 0.00 0.00 81 1029.6
20190420001450 5 82 4.8 6.4 0.00 0.00 0.00 81 1029.6
20190420001353 5 83 4.8 6.4 0.00 0.00 0.00 81 1029.6
20190420001255 5 85 4.8 6.4 0.00 0.00 0.00 81 1029.6
20190420001155 5 85 4.8 6.4 0.00 0.00 0.00 81 1029.6
20190420001057 5 87 4.8 6.4 0.00 0.00 0.00 81 1029.6
20190420001033 5 88 3.2 6.4 0.00 0.00 0.00 80 1029.6
20190420000927 5 88 3.2 4.8 0.00 0.00 0.00 80 1029.6
20190420000828 5 88 3.2 4.8 0.00 0.00 0.00 80 1029.7
20190420000734 5 88 3.2 4.8 0.00 0.00 0.00 80 1029.7
20190420000633 5 88 3.2 4.8 0.00 0.00 0.00 80 1029.7
20190420000524 5 88 1.6 4.8 0.00 0.00 0.00 80 1029.7
20190420000421 5 88 1.6 4.8 0.00 0.00 0.00 80 1029.7
20190420000322 5 88 1.6 6.4 0.00 0.00 0.00 80 1029.7
20190420000220 5 88 3.2 6.4 0.00 0.00 0.00 80 1029.7
20190420000126 5 88 1.6 8.0 0.00 0.00 0.00 80 1029.6
20190420000120 5 88 3.2 8.0 0.00 0.00 0.00 80 1029.7
20190419235953 5 88 3.2 8.0 0.00 0.00 0.00 80 1029.7
20190419235850 5 88 3.2 8.0 0.00 0.00 0.00 80 1029.7
20190419235748 5 88 3.2 8.0 0.00 0.00 0.00 79 1029.7
20190419235649 5 88 3.2 8.0 0.00 0.00 0.00 79 1029.6
20190419235551 5 88 4.8 8.0 0.00 0.00 0.00 79 1029.6
20190419235520 5 88 3.2 8.0 0.00 0.00 0.00 79 1029.6
20190419235442 5 88 4.8 8.0 0.00 0.00 0.00 79 1029.7
20190419235345 5 90 4.8 8.0 0.00 0.00 0.00 79 1029.8
20190419235245 5 90 6.4 8.0 0.00 0.00 0.00 78 1029.7
20190419235145 5 90 6.4 6.4 0.00 0.00 0.00 77 1029.7
20190419235044 5 90 4.8 6.4 0.00 0.00 0.00 78 1029.7
20190419234921 5 90 3.2 4.8 0.00 0.00 0.00 78 1029.7
20190419234811 5 90 3.2 4.8 0.00 0.00 0.00 78 1029.7
20190419234714 5 90 3.2 4.8 0.00 0.00 0.00 78 1029.7
20190419234615 5 90 3.2 4.8 0.00 0.00 0.00 78 1029.8
20190419234513 5 90 3.2 4.8 0.00 0.00 0.00 78 1029.8
20190419234415 5 90 3.2 4.8 0.00 0.00 0.00 78 1029.7
20190419234245 5 90 3.2 4.8 0.00 0.00 0.00 78 1029.8
20190419234142 5 90 3.2 4.8 0.00 0.00 0.00 78 1029.7
20190419234046 5 90 3.2 4.8 0.00 0.00 0.00 78 1029.8
20190419233924 5 90 1.6 3.2 0.00 0.00 0.00 78 1029.8
20190419233825 5 90 1.6 3.2 0.00 0.00 0.00 78 1029.8
20190419233716 5 90 1.6 3.2 0.00 0.00 0.00 78 1029.8
20190419233617 6 90 1.6 3.2 0.00 0.00 0.00 78 1029.8
20190419233515 6 90 1.6 3.2 0.00 0.00 0.00 78 1029.8
20190419233417 6 90 0.0 3.2 0.00 0.00 0.00 78 1029.8
20190419233317 6 90 1.6 3.2 0.00 0.00 0.00 78 1029.8
20190419233205 6 90 1.6 3.2 0.00 0.00 0.00 77 1029.8
20190419233105 6 90 0.0 3.2 0.00 0.00 0.00 78 1029.8
20190419233007 6 90 0.0 1.6 0.00 0.00 0.00 78 1029.8
20190419232905 6 90 1.6 3.2 0.00 0.00 0.00 77 1029.7
20190419232810 6 90 0.0 3.2 0.00 0.00 0.00 77 1029.8
20190419232709 6 90 0.0 3.2 0.00 0.00 0.00 77 1029.7
20190419232610 6 90 0.0 3.2 0.00 0.00 0.00 77 1029.8
20190419232547 5 90 0.0 3.2 0.00 0.00 0.00 77 1029.7
20190419232449 6 90 0.0 3.2 0.00 0.00 0.00 77 1029.8
20190419232333 6 90 0.0 3.2 0.00 0.00 0.00 77 1029.8
20190419232232 6 90 1.6 3.2 0.00 0.00 0.00 77 1029.8
20190419232135 6 90 1.6 3.2 0.00 0.00 0.00 77 1029.8
20190419232035 6 90 1.6 3.2 0.00 0.00 0.00 77 1029.8
20190419231910 6 90 1.6 3.2 0.00 0.00 0.00 76 1029.8
20190419231800 6 90 1.6 3.2 0.00 0.00 0.00 76 1029.8
20190419231701 6 90 1.6 3.2 0.00 0.00 0.00 76 1029.8
20190419231602 6 90 3.2 3.2 0.00 0.00 0.00 76 1029.8
20190419231505 6 90 1.6 3.2 0.00 0.00 0.00 76 1029.8
20190419231404 6 90 1.6 3.2 0.00 0.00 0.00 76 1029.8
20190419231305 6 90 1.6 3.2 0.00 0.00 0.00 75 1029.8
20190419231156 6 90 1.6 3.2 0.00 0.00 0.00 75 1029.8
20190419231058 6 90 3.2 3.2 0.00 0.00 0.00 75 1029.8
20190419230953 6 90 1.6 3.2 0.00 0.00 0.00 75 1029.8
20190419230851 6 90 1.6 3.2 0.00 0.00 0.00 74 1029.8
20190419230757 6 90 1.6 3.2 0.00 0.00 0.00 74 1029.8
20190419230656 6 90 1.6 1.6 0.00 0.00 0.00 73 1029.8
20190419230546 7 90 0.0 1.6 0.00 0.00 0.00 73 1029.8
20190419230444 7 90 0.0 1.6 0.00 0.00 0.00 72 1029.8
20190419230346 7 90 0.0 1.6 0.00 0.00 0.00 72 1029.8
20190419230247 7 90 0.0 1.6 0.00 0.00 0.00 72 1029.8
20190419230151 7 90 0.0 1.6 0.00 0.00 0.00 72 1029.8
20190419230051 7 90 0.0 1.6 0.00 0.00 0.00 71 1029.8
20190419225949 7 90 0.0 1.6 0.00 0.00 0.00 72 1029.8
20190419225837 7 90 0.0 1.6 0.00 0.00 0.00 71 1029.8
20190419225739 7 90 0.0 0.0 0.00 0.00 0.00 71 1029.8
20190419225637 7 90 0.0 1.6 0.00 0.00 0.00 71 1029.9
20190419225537 7 90 0.0 3.2 0.00 0.00 0.00 71 1029.8
20190419225439 7 90 0.0 4.8 0.00 0.00 0.00 71 1029.8
20190419225339 7 90 0.0 6.4 0.00 0.00 0.00 71 1029.9
20190419225238 7 90 0.0 6.4 0.00 0.00 0.00 71 1029.8
20190419225127 7 90 0.0 6.4 0.00 0.00 0.00 71 1029.9
20190419225029 7 90 0.0 8.0 0.00 0.00 0.00 71 1029.9
20190419224900 7 90 1.6 8.0 0.00 0.00 0.00 71 1029.9
20190419224805 7 90 1.6 8.0 0.00 0.00 0.00 71 1029.9
20190419224705 7 90 3.2 8.0 0.00 0.00 0.00 71 1029.8
20190419224607 7 90 4.8 8.0 0.00 0.00 0.00 71 1029.8
20190419224507 7 90 4.8 9.7 0.00 0.00 0.00 71 1029.9
20190419224356 7 90 4.8 9.7 0.00 0.00 0.00 71 1029.8
20190419224258 7 91 4.8 9.7 0.00 0.00 0.00 71 1029.8
20190419224157 7 90 4.8 9.7 0.00 0.00 0.00 71 1029.8
20190419223852 7 76 4.8 9.7 0.00 0.00 0.00 70 1029.8
20190419223752 7 85 6.4 9.7 0.00 0.00 0.00 70 1029.8
20190419223653 7 97 6.4 11.3 0.00 0.00 0.00 70 1029.8
20190419223553 7 84 4.8 6.4 0.00 0.00 0.00 70 1029.8
20190419223453 7 85 4.8 8.0 0.00 0.00 0.00 70 1029.8
20190419223356 7 85 4.8 9.7 0.00 0.00 0.00 70 1029.8
20190419223256 7 75 4.8 9.7 0.00 0.00 0.00 70 1029.8
20190419223144 7 74 4.8 9.7 0.00 0.00 0.00 70 1029.8
20190419223044 7 77 4.8 9.7 0.00 0.00 0.00 71 1029.8
20190419222917 7 71 4.8 9.7 0.00 0.00 0.00 71 1029.8
20190419222815 7 72 4.8 9.7 0.00 0.00 0.00 71 1029.8
20190419222716 8 72 6.4 9.7 0.00 0.00 0.00 70 1029.8
20190419222614 7 76 6.4 9.7 0.00 0.00 0.00 70 1029.8
20190419222500 7 81 4.8 8.0 0.00 0.00 0.00 70 1029.8
20190419222341 7 76 4.8 8.0 0.00 0.00 0.00 71 1029.8
20190419222228 7 76 4.8 9.7 0.00 0.00 0.00 71 1029.8
20190419222127 7 76 6.4 9.7 0.00 0.00 0.00 71 1029.8
20190419222030 7 77 6.4 9.7 0.00 0.00 0.00 71 1029.8
20190419221906 7 82 4.8 9.7 0.00 0.00 0.00 71 1029.8
20190419221806 7 72 6.4 9.7 0.00 0.00 0.00 71 1029.8
20190419221707 7 80 6.4 9.7 0.00 0.00 0.00 71 1029.8
20190419221557 7 79 6.4 9.7 0.00 0.00 0.00 71 1029.8
20190419221455 7 80 6.4 9.7 0.00 0.00 0.00 71 1029.8
20190419221400 7 89 6.4 11.3 0.00 0.00 0.00 71 1029.8
20190419221300 7 96 6.4 11.3 0.00 0.00 0.00 71 1029.8
20190419221200 7 87 6.4 9.7 0.00 0.00 0.00 72 1029.8
20190419221102 7 81 6.4 12.9 0.00 0.00 0.00 72 1029.8
20190419220959 7 80 4.8 12.9 0.00 0.00 0.00 72 1029.8
20190419220830 8 93 6.4 12.9 0.00 0.00 0.00 72 1029.8
20190419220733 8 93 8.0 12.9 0.00 0.00 0.00 73 1029.9
20190419220634 8 89 6.4 12.9 0.00 0.00 0.00 72 1029.9
20190419220536 8 71 6.4 12.9 0.00 0.00 0.00 72 1029.9
20190419220433 8 77 8.0 12.9 0.00 0.00 0.00 72 1029.9
20190419220253 8 79 6.4 12.9 0.00 0.00 0.00 72 1029.9
20190419220144 8 91 6.4 9.7 0.00 0.00 0.00 72 1029.9
20190419220015 8 91 6.4 9.7 0.00 0.00 0.00 72 1029.9
20190419215843 8 68 8.0 9.7 0.00 0.00 0.00 72 1029.9
20190419215740 8 70 6.4 9.7 0.00 0.00 0.00 72 1029.9
20190419215631 8 78 4.8 8.0 0.00 0.00 0.00 72 1029.9
20190419215532 8 74 4.8 8.0 0.00 0.00 0.00 72 1029.8
20190419215434 8 74 6.4 8.0 0.00 0.00 0.00 72 1029.9
20190419215334 8 76 6.4 8.0 0.00 0.00 0.00 72 1029.9
20190419215231 8 76 6.4 8.0 0.00 0.00 0.00 72 1029.9
20190419215131 8 74 6.4 8.0 0.00 0.00 0.00 72 1029.8
20190419215019 8 81 6.4 8.0 0.00 0.00 0.00 72 1029.9
20190419214857 8 82 6.4 8.0 0.00 0.00 0.00 72 1029.9
20190419214757 8 81 6.4 8.0 0.00 0.00 0.00 72 1029.9
20190419214657 8 82 6.4 8.0 0.00 0.00 0.00 72 1029.9
20190419214557 8 82 6.4 8.0 0.00 0.00 0.00 72 1029.9
20190419214454 8 82 6.4 8.0 0.00 0.00 0.00 72 1029.8
20190419214344 8 84 6.4 8.0 0.00 0.00 0.00 71 1029.9
20190419214244 8 83 4.8 8.0 0.00 0.00 0.00 71 1029.9
20190419214140 8 80 4.8 8.0 0.00 0.00 0.00 71 1029.9
20190419214042 8 81 4.8 8.0 0.00 0.00 0.00 71 1029.9
20190419213917 8 80 6.4 9.7 0.00 0.00 0.00 71 1029.9
20190419213814 8 82 6.4 9.7 0.00 0.00 0.00 71 1029.9
20190419213703 8 78 6.4 9.7 0.00 0.00 0.00 70 1029.8
20190419213603 8 86 6.4 9.7 0.00 0.00 0.00 70 1029.9
20190419213501 8 89 6.4 9.7 0.00 0.00 0.00 70 1029.9
20190419213236 8 92 6.4 9.7 0.00 0.00 0.00 70 1029.8
20190419213126 8 87 6.4 9.7 0.00 0.00 0.00 70 1029.9
20190419213024 8 91 6.4 9.7 0.00 0.00 0.00 70 1029.8
20190419212858 8 93 6.4 8.0 0.00 0.00 0.00 70 1029.9
20190419212755 8 89 4.8 8.0 0.00 0.00 0.00 70 1029.8
20190419212702 8 87 4.8 8.0 0.00 0.00 0.00 69 1029.8
20190419212544 8 82 4.8 8.0 0.00 0.00 0.00 69 1029.8
20190419212424 8 82 4.8 8.0 0.00 0.00 0.00 69 1029.8
20190419212323 8 85 4.8 8.0 0.00 0.00 0.00 68 1029.8
20190419212221 8 85 4.8 8.0 0.00 0.00 0.00 68 1029.8
20190419212121 8 84 4.8 8.0 0.00 0.00 0.00 68 1029.8
20190419212024 8 80 4.8 8.0 0.00 0.00 0.00 67 1029.8
20190419211925 8 82 6.4 8.0 0.00 0.00 0.00 67 1029.8
20190419211812 8 83 6.4 8.0 0.00 0.00 0.00 67 1029.8
20190419211711 8 93 8.0 9.7 0.00 0.00 0.00 68 1029.8
20190419211609 9 81 8.0 8.0 0.00 0.00 0.00 67 1029.8
20190419211507 9 91 8.0 8.0 0.00 0.00 0.00 68 1029.8
20190419211407 9 88 8.0 9.7 0.00 0.00 0.00 68 1029.8
20190419211310 9 95 8.0 8.0 0.00 0.00 0.00 68 1029.7
20190419211158 9 91 6.4 8.0 0.00 0.00 0.00 68 1029.7
20190419211058 9 88 6.4 8.0 0.00 0.00 0.00 68 1029.7
20190419210930 9 85 4.8 8.0 0.00 0.00 0.00 68 1029.8
20190419210807 9 85 6.4 8.0 0.00 0.00 0.00 68 1029.7
20190419210709 9 89 4.8 8.0 0.00 0.00 0.00 68 1029.7
20190419210607 9 88 4.8 8.0 0.00 0.00 0.00 68 1029.7
20190419210501 9 87 4.8 8.0 0.00 0.00 0.00 68 1029.6
20190419210400 9 82 4.8 8.0 0.00 0.00 0.00 68 1029.6
20190419210301 9 84 6.4 8.0 0.00 0.00 0.00 68 1029.6
20190419210146 9 78 4.8 8.0 0.00 0.00 0.00 68 1029.6
20190419210044 9 89 4.8 8.0 0.00 0.00 0.00 68 1029.6
20190419205922 9 78 6.4 8.0 0.00 0.00 0.00 68 1029.5
20190419205758 9 73 6.4 8.0 0.00 0.00 0.00 67 1029.6
20190419205657 9 76 4.8 8.0 0.00 0.00 0.00 67 1029.5
20190419205554 9 72 6.4 9.7 0.00 0.00 0.00 67 1029.6
20190419205525 9 71 4.8 9.7 0.00 0.00 0.00 67 1029.5
20190419205441 9 70 6.4 9.7 0.00 0.00 0.00 67 1029.6
20190419205342 9 65 6.4 9.7 0.00 0.00 0.00 67 1029.5
20190419205238 9 74 6.4 9.7 0.00 0.00 0.00 67 1029.6
20190419205135 9 74 6.4 12.9 0.00 0.00 0.00 67 1029.6
20190419205034 9 77 6.4 12.9 0.00 0.00 0.00 66 1029.5
20190419204932 10 67 6.4 12.9 0.00 0.00 0.00 66 1029.5
20190419204811 10 77 6.4 12.9 0.00 0.00 0.00 66 1029.5
20190419204705 10 84 6.4 12.9 0.00 0.00 0.00 66 1029.5
20190419204606 10 79 6.4 12.9 0.00 0.00 0.00 66 1029.5
20190419204504 10 93 8.0 12.9 0.00 0.00 0.00 66 1029.5
20190419204404 10 92 9.7 12.9 0.00 0.00 0.00 66 1029.5
20190419204304 10 93 8.0 11.3 0.00 0.00 0.00 66 1029.5
20190419204204 10 93 8.0 11.3 0.00 0.00 0.00 66 1029.5
20190419204101 10 93 6.4 11.3 0.00 0.00 0.00 66 1029.5
20190419204035 9 85 4.8 9.7 0.00 0.00 0.00 66 1029.4
20190419203953 10 78 6.4 9.7 0.00 0.00 0.00 66 1029.5
20190419203831 10 70 6.4 9.7 0.00 0.00 0.00 66 1029.5
20190419203731 10 70 6.4 9.7 0.00 0.00 0.00 66 1029.5
20190419203630 10 82 4.8 9.7 0.00 0.00 0.00 66 1029.4
20190419203530 10 75 4.8 12.9 0.00 0.00 0.00 66 1029.4
20190419203403 10 76 6.4 12.9 0.00 0.00 0.00 66 1029.5
20190419203303 10 72 6.4 12.9 0.00 0.00 0.00 66 1029.5
20190419203200 10 86 6.4 12.9 0.00 0.00 0.00 66 1029.4
20190419203100 10 93 8.0 12.9 0.00 0.00 0.00 66 1029.5
20190419202958 10 88 8.0 12.9 0.00 0.00 0.00 66 1029.5
20190419202842 10 91 8.0 12.9 0.00 0.00 0.00 66 1029.5
20190419202734 10 94 6.4 12.9 0.00 0.00 0.00 66 1029.5
20190419202514 10 89 8.0 9.7 0.00 0.00 0.00 66 1029.4
20190419202357 10 82 6.4 11.3 0.00 0.00 0.00 66 1029.4
20190419202255 10 91 6.4 11.3 0.00 0.00 0.00 66 1029.4
20190419202206 10 78 6.4 9.7 0.00 0.00 0.00 65 1029.4
20190419202044 10 82 6.4 9.7 0.00 0.00 0.00 65 1029.4
20190419201945 10 86 6.4 11.3 0.00 0.00 0.00 65 1029.4
20190419201845 10 76 4.8 12.9 0.00 0.00 0.00 65 1029.4
20190419201742 10 72 4.8 12.9 0.00 0.00 0.00 65 1029.4
20190419201640 10 70 6.4 12.9 0.00 0.00 0.00 65 1029.4
20190419201541 10 85 6.4 14.5 0.00 0.00 0.00 65 1029.4
20190419201438 10 89 6.4 14.5 0.00 0.00 0.00 65 1029.4
20190419201329 10 90 8.0 14.5 0.00 0.00 0.00 65 1029.4
20190419201231 10 95 8.0 14.5 0.00 0.00 0.00 65 1029.4
20190419201130 10 78 9.7 14.5 0.00 0.00 0.00 65 1029.4
20190419201026 10 99 9.7 14.5 0.00 0.00 0.00 65 1029.4
20190419200858 10 93 11.3 14.5 0.00 0.00 0.00 65 1029.4
20190419200614 10 85 8.0 12.9 0.00 0.00 0.00 65 1029.4
20190419200454 10 91 8.0 12.9 0.00 0.00 0.00 65 1029.4
20190419200351 10 80 8.0 12.9 0.00 0.00 0.00 64 1029.4
20190419200247 10 74 6.4 12.9 0.00 0.00 0.00 64 1029.3
20190419200144 10 75 6.4 11.3 0.00 0.00 0.00 64 1029.3
20190419200042 10 83 6.4 11.3 0.00 0.00 0.00 64 1029.3
20190419200005 10 76 6.4 11.3 0.00 0.00 0.00 64 1029.3
20190419195901 10 68 8.0 11.3 0.00 0.00 0.00 64 1029.3
20190419195736 10 94 8.0 12.9 0.00 0.00 0.00 63 1029.3
20190419195634 10 77 8.0 12.9 0.00 0.00 0.00 63 1029.3
20190419195533 11 72 8.0 12.9 0.00 0.00 0.00 63 1029.3
20190419195430 11 73 6.4 12.9 0.00 0.00 0.00 62 1029.3
20190419195327 11 93 6.4 12.9 0.00 0.00 0.00 62 1029.3
20190419195209 11 84 8.0 12.9 0.00 0.00 0.00 62 1029.3
20190419195058 11 70 8.0 12.9 0.00 0.00 0.00 62 1029.2
20190419194950 11 94 8.0 12.9 0.00 0.00 0.00 62 1029.2
20190419194825 11 93 8.0 12.9 0.00 0.00 0.00 61 1029.2
20190419194720 11 89 6.4 12.9 0.00 0.00 0.00 61 1029.3
20190419194617 11 78 6.4 12.9 0.00 0.00 0.00 61 1029.2
20190419194517 11 87 6.4 11.3 0.00 0.00 0.00 61 1029.2
20190419194415 11 74 6.4 11.3 0.00 0.00 0.00 60 1029.2
20190419194314 11 87 6.4 11.3 0.00 0.00 0.00 60 1029.2
20190419194213 11 89 6.4 9.7 0.00 0.00 0.00 60 1029.2
20190419194103 11 87 6.4 9.7 0.00 0.00 0.00 60 1029.2
20190419194002 11 84 6.4 11.3 0.00 0.00 0.00 59 1029.1
20190419193900 11 82 8.0 12.9 0.00 0.00 0.00 59 1029.2
20190419193742 11 86 6.4 12.9 0.00 0.00 0.00 58 1029.2
20190419193643 11 87 6.4 12.9 0.00 0.00 0.00 58 1029.2
20190419193544 12 87 6.4 12.9 0.00 0.00 0.00 56 1029.1
20190419193519 11 83 6.4 12.9 0.00 0.00 0.00 56 1029.0
20190419193434 12 87 6.4 12.9 0.00 0.00 0.00 56 1029.2
20190419193328 12 87 8.0 12.9 0.00 0.00 0.00 56 1029.2
20190419193224 12 83 9.7 12.9 0.00 0.00 0.00 55 1029.1
20190419193124 12 81 8.0 12.9 0.00 0.00 0.00 54 1029.1
20190419193018 12 93 6.4 11.3 0.00 0.00 0.00 53 1029.2
20190419192920 12 91 6.4 11.3 0.00 0.00 0.00 53 1029.2
20190419192820 12 91 6.4 11.3 0.00 0.00 0.00 52 1029.1
20190419192716 13 85 8.0 11.3 0.00 0.00 0.00 52 1029.1
20190419192606 13 91 8.0 11.3 0.00 0.00 0.00 51 1029.1
20190419192458 13 91 8.0 11.3 0.00 0.00 0.00 51 1029.1
20190419192341 13 92 4.8 6.4 0.00 0.00 0.00 50 1029.1
20190419192240 13 91 4.8 6.4 0.00 0.00 0.00 50 1029.1
20190419192140 13 84 4.8 6.4 0.00 0.00 0.00 50 1029.1
20190419192042 13 84 3.2 6.4 0.00 0.00 0.00 49 1029.0
20190419192018 13 84 1.6 6.4 0.00 0.00 0.00 49 1028.9
20190419191929 13 84 3.2 6.4 0.00 0.00 0.00 49 1029.1
20190419191832 13 84 3.2 6.4 0.00 0.00 0.00 49 1029.0
20190419191603 13 84 3.2 6.4 0.00 0.00 0.00 49 1029.0
20190419191501 13 84 3.2 6.4 0.00 0.00 0.00 49 1029.0
20190419191350 13 83 3.2 6.4 0.00 0.00 0.00 49 1029.0
20190419191251 13 84 3.2 6.4 0.00 0.00 0.00 48 1029.0
20190419191149 13 85 3.2 4.8 0.00 0.00 0.00 48 1029.0
20190419191053 13 85 3.2 4.8 0.00 0.00 0.00 48 1029.0
20190419190947 13 85 3.2 4.8 0.00 0.00 0.00 48 1029.0
20190419190846 13 85 3.2 4.8 0.00 0.00 0.00 48 1029.0
20190419190717 13 85 3.2 4.8 0.00 0.00 0.00 48 1029.0
20190419190619 13 85 3.2 4.8 0.00 0.00 0.00 47 1029.0
20190419190517 13 85 3.2 4.8 0.00 0.00 0.00 47 1029.0
20190419190420 13 85 3.2 4.8 0.00 0.00 0.00 47 1029.0
20190419190319 14 85 3.2 4.8 0.00 0.00 0.00 47 1029.0
20190419190218 14 81 3.2 4.8 0.00 0.00 0.00 47 1029.0
20190419190109 14 81 3.2 4.8 0.00 0.00 0.00 46 1029.0
20190419190008 14 81 3.2 4.8 0.00 0.00 0.00 46 1029.0
20190419185908 14 81 1.6 4.8 0.00 0.00 0.00 46 1028.9
20190419185750 14 81 1.6 4.8 0.00 0.00 0.00 46 1029.0
20190419185650 14 81 3.2 4.8 0.00 0.00 0.00 46 1029.0
20190419185541 14 81 3.2 4.8 0.00 0.00 0.00 46 1029.0
20190419185440 14 81 1.6 3.2 0.00 0.00 0.00 46 1029.0
20190419185341 14 81 1.6 3.2 0.00 0.00 0.00 46 1029.0
20190419185241 14 81 1.6 3.2 0.00 0.00 0.00 45 1029.0
20190419185140 14 81 1.6 3.2 0.00 0.00 0.00 45 1029.0
20190419185044 14 81 1.6 3.2 0.00 0.00 0.00 45 1029.0
20190419185021 14 81 0.0 3.2 0.00 0.00 0.00 45 1028.8
20190419184934 14 81 1.6 3.2 0.00 0.00 0.00 45 1028.9
20190419184832 14 81 1.6 3.2 0.00 0.00 0.00 45 1028.9
20190419184712 15 81 1.6 3.2 0.00 0.00 0.00 45 1028.9
20190419184612 15 81 1.6 3.2 0.00 0.00 0.00 45 1028.9
20190419184509 15 81 1.6 3.2 0.00 0.00 0.00 45 1028.9
20190419184402 15 81 1.6 3.2 0.00 0.00 0.00 45 1028.9
20190419184305 15 81 1.6 3.2 0.00 0.00 0.00 45 1028.8
20190419184159 15 81 1.6 4.8 0.00 0.00 0.00 45 1028.8
20190419184059 15 81 1.6 4.8 0.00 0.00 0.00 45 1028.8
20190419183956 15 81 1.6 4.8 0.00 0.00 0.00 45 1028.8
20190419183855 15 81 1.6 4.8 0.00 0.00 0.00 45 1028.8
20190419183729 15 81 1.6 4.8 0.00 0.00 0.00 45 1028.8
20190419183626 15 81 1.6 4.8 0.00 0.00 0.00 44 1028.8
20190419183524 15 81 1.6 4.8 0.00 0.00 0.00 44 1028.8
20190419183420 15 81 1.6 4.8 0.00 0.00 0.00 45 1028.8
20190419183320 15 81 1.6 3.2 0.00 0.00 0.00 44 1028.8
20190419183209 15 81 1.6 3.2 0.00 0.00 0.00 44 1028.7
20190419183115 15 81 1.6 3.2 0.00 0.00 0.00 44 1028.8
20190419183012 15 81 1.6 3.2 0.00 0.00 0.00 44 1028.8
20190419182911 15 81 1.6 3.2 0.00 0.00 0.00 44 1028.7
20190419182753 15 81 1.6 3.2 0.00 0.00 0.00 44 1028.7
20190419182651 15 81 1.6 4.8 0.00 0.00 0.00 43 1028.7
20190419182532 15 81 1.6 4.8 0.00 0.00 0.00 43 1028.7
20190419182414 16 81 1.6 4.8 0.00 0.00 0.00 43 1028.7
20190419182312 16 81 1.6 4.8 0.00 0.00 0.00 43 1028.7
20190419182210 16 81 1.6 4.8 0.00 0.00 0.00 43 1028.7
20190419182110 16 81 3.2 4.8 0.00 0.00 0.00 42 1028.7
20190419182045 16 81 1.6 4.8 0.00 0.00 0.00 42 1028.5
20190419181957 16 81 3.2 4.8 0.00 0.00 0.00 42 1028.7
20190419181858 16 81 3.2 4.8 0.00 0.00 0.00 42 1028.7
20190419181802 16 81 3.2 4.8 0.00 0.00 0.00 42 1028.6
20190419181659 16 81 1.6 3.2 0.00 0.00 0.00 42 1028.6
20190419181600 16 81 1.6 3.2 0.00 0.00 0.00 42 1028.6
20190419181457 16 81 1.6 3.2 0.00 0.00 0.00 42 1028.6
20190419181357 16 81 1.6 3.2 0.00 0.00 0.00 42 1028.6
20190419181258 16 81 1.6 3.2 0.00 0.00 0.00 41 1028.6
20190419181147 16 81 0.0 4.8 0.00 0.00 0.00 42 1028.6
20190419181050 16 81 0.0 4.8 0.00 0.00 0.00 42 1028.6
20190419180948 16 81 0.0 4.8 0.00 0.00 0.00 42 1028.6
20190419180848 16 81 1.6 4.8 0.00 0.00 0.00 41 1028.6
20190419180747 16 81 1.6 4.8 0.00 0.00 0.00 41 1028.6
20190419180646 16 81 1.6 4.8 0.00 0.00 0.00 40 1028.5
20190419180537 16 81 1.6 4.8 0.00 0.00 0.00 40 1028.5
20190419180437 16 81 3.2 4.8 0.00 0.00 0.00 40 1028.5
20190419180337 17 81 3.2 4.8 0.00 0.00 0.00 40 1028.5
20190419180235 17 81 3.2 4.8 0.00 0.00 0.00 40 1028.4
20190419180133 17 81 3.2 4.8 0.00 0.00 0.00 40 1028.4
20190419180033 17 81 1.6 4.8 0.00 0.00 0.00 40 1028.4
20190419175929 17 81 1.6 6.4 0.00 0.00 0.00 40 1028.4
20190419175827 17 81 3.2 6.4 0.00 0.00 0.00 39 1028.4
20190419175701 17 81 3.2 6.4 0.00 0.00 0.00 39 1028.3
20190419175551 17 81 3.2 6.4 0.00 0.00 0.00 39 1028.3
20190419175446 17 81 3.2 6.4 0.00 0.00 0.00 39 1028.4
20190419175213 17 81 4.8 6.4 0.00 0.00 0.00 38 1028.4
20190419175111 17 81 4.8 6.4 0.00 0.00 0.00 38 1028.3
20190419175013 17 80 3.2 6.4 0.00 0.00 0.00 38 1028.3
20190419174910 17 80 4.8 6.4 0.00 0.00 0.00 38 1028.3
20190419174807 17 81 4.8 6.4 0.00 0.00 0.00 38 1028.3
20190419174634 17 80 4.8 6.4 0.00 0.00 0.00 38 1028.3
20190419174534 18 80 4.8 6.4 0.00 0.00 0.00 38 1028.3
20190419174429 18 82 4.8 6.4 0.00 0.00 0.00 38 1028.3
20190419174333 18 81 4.8 8.0 0.00 0.00 0.00 38 1028.3
20190419174229 18 81 4.8 8.0 0.00 0.00 0.00 38 1028.3
20190419174127 18 81 4.8 8.0 0.00 0.00 0.00 37 1028.3
20190419174027 18 81 4.8 8.0 0.00 0.00 0.00 37 1028.3
20190419173924 18 80 4.8 8.0 0.00 0.00 0.00 37 1028.3
20190419173748 18 88 4.8 8.0 0.00 0.00 0.00 38 1028.3
20190419173630 18 89 4.8 8.0 0.00 0.00 0.00 38 1028.3
20190419173531 18 89 6.4 8.0 0.00 0.00 0.00 37 1028.3
20190419173426 18 88 4.8 6.4 0.00 0.00 0.00 38 1028.3
20190419173322 18 87 4.8 6.4 0.00 0.00 0.00 37 1028.3
20190419173220 18 87 4.8 6.4 0.00 0.00 0.00 37 1028.2
20190419173118 18 87 6.4 6.4 0.00 0.00 0.00 37 1028.3
20190419173019 18 89 6.4 6.4 0.00 0.00 0.00 37 1028.3
20190419172916 18 93 4.8 8.0 0.00 0.00 0.00 37 1028.2
20190419172806 18 73 4.8 8.0 0.00 0.00 0.00 37 1028.3
20190419172641 18 88 4.8 8.0 0.00 0.00 0.00 37 1028.3
20190419172530 18 89 4.8 9.7 0.00 0.00 0.00 37 1028.2
20190419172350 18 89 4.8 9.7 0.00 0.00 0.00 37 1028.3
20190419172243 18 87 4.8 9.7 0.00 0.00 0.00 37 1028.2
20190419172110 18 89 6.4 12.9 0.00 0.00 0.00 37 1028.2
20190419171942 18 88 6.4 12.9 0.00 0.00 0.00 37 1028.3
20190419171841 19 89 6.4 12.9 0.00 0.00 0.00 37 1028.3
20190419171723 19 82 6.4 12.9 0.00 0.00 0.00 37 1028.3
20190419171622 19 83 8.0 12.9 0.00 0.00 0.00 36 1028.3
20190419171521 19 86 8.0 12.9 0.00 0.00 0.00 36 1028.2
20190419171410 19 89 8.0 12.9 0.00 0.00 0.00 36 1028.3
20190419171310 19 74 9.7 12.9 0.00 0.00 0.00 36 1028.3
20190419171207 19 82 8.0 12.9 0.00 0.00 0.00 36 1028.2
20190419171107 19 97 8.0 12.9 0.00 0.00 0.00 36 1028.2
20190419171009 19 97 8.0 12.9 0.00 0.00 0.00 36 1028.3
20190419170909 19 79 8.0 12.9 0.00 0.00 0.00 36 1028.3
20190419170808 20 80 8.0 12.9 0.00 0.00 0.00 36 1028.2
20190419170646 20 97 6.4 9.7 0.00 0.00 0.00 36 1028.2
20190419170545 20 89 6.4 12.9 0.00 0.00 0.00 36 1028.2
20190419170521 19 95 4.8 12.9 0.00 0.00 0.00 36 1028.1
20190419170418 20 85 6.4 12.9 0.00 0.00 0.00 36 1028.2
20190419170319 20 91 6.4 12.9 0.00 0.00 0.00 35 1028.2
20190419170214 20 81 4.8 12.9 0.00 0.00 0.00 35 1028.2
20190419170112 20 87 4.8 12.9 0.00 0.00 0.00 36 1028.2
20190419170010 20 84 6.4 14.5 0.00 0.00 0.00 36 1028.2
20190419165908 20 87 6.4 14.5 0.00 0.00 0.00 35 1028.2
20190419165741 20 92 8.0 14.5 0.00 0.00 0.00 34 1028.2
20190419165605 20 82 8.0 14.5 0.00 0.00 0.00 34 1028.1
20190419165458 20 77 9.7 14.5 0.00 0.00 0.00 35 1028.2
20190419165332 20 97 9.7 14.5 0.00 0.00 0.00 34 1028.1
20190419165230 20 90 8.0 14.5 0.00 0.00 0.00 35 1028.1
20190419165113 20 70 6.4 12.9 0.00 0.00 0.00 36 1028.1
20190419165010 20 87 6.4 12.9 0.00 0.00 0.00 36 1028.1
20190419164858 20 84 6.4 12.9 0.00 0.00 0.00 35 1028.1
20190419164757 20 84 6.4 16.1 0.00 0.00 0.00 34 1028.1
20190419164635 20 82 6.4 16.1 0.00 0.00 0.00 34 1028.1
20190419164528 20 80 8.0 17.7 0.00 0.00 0.00 34 1028.1
20190419164410 20 87 8.0 17.7 0.00 0.00 0.00 34 1028.1
20190419164310 20 78 8.0 17.7 0.00 0.00 0.00 34 1028.1
20190419164208 20 83 8.0 17.7 0.00 0.00 0.00 35 1028.1
20190419164109 20 88 9.7 17.7 0.00 0.00 0.00 34 1028.1
20190419164044 20 92 8.0 17.7 0.00 0.00 0.00 34 1028.0
20190419163955 20 90 11.3 17.7 0.00 0.00 0.00 34 1028.1
20190419163857 20 82 12.9 17.7 0.00 0.00 0.00 34 1028.0
20190419163800 20 86 14.5 17.7 0.00 0.00 0.00 33 1028.1
20190419163637 20 86 11.3 17.7 0.00 0.00 0.00 34 1028.1
20190419163534 20 103 9.7 17.7 0.00 0.00 0.00 33 1028.1
20190419163431 20 96 9.7 17.7 0.00 0.00 0.00 34 1028.1
20190419163328 20 84 11.3 17.7 0.00 0.00 0.00 34 1028.0
20190419163203 20 102 12.9 17.7 0.00 0.00 0.00 34 1028.1
20190419163031 20 93 12.9 17.7 0.00 0.00 0.00 34 1028.1
20190419162928 20 82 12.9 16.1 0.00 0.00 0.00 34 1028.1
20190419162827 20 95 11.3 16.1 0.00 0.00 0.00 33 1028.1
20190419162725 20 92 9.7 17.7 0.00 0.00 0.00 34 1028.0
20190419162616 20 99 9.7 17.7 0.00 0.00 0.00 35 1028.1
20190419162507 20 92 9.7 17.7 0.00 0.00 0.00 34 1028.1
20190419162348 20 97 9.7 17.7 0.00 0.00 0.00 33 1028.1
20190419162245 20 93 11.3 17.7 0.00 0.00 0.00 34 1028.1
20190419162135 20 92 11.3 17.7 0.00 0.00 0.00 35 1028.1
20190419162036 20 98 12.9 17.7 0.00 0.00 0.00 34 1028.1
20190419161932 20 92 12.9 17.7 0.00 0.00 0.00 33 1028.1
20190419161832 20 101 12.9 17.7 0.00 0.00 0.00 33 1028.1
20190419161732 20 85 11.3 17.7 0.00 0.00 0.00 34 1028.0
20190419161607 20 91 9.7 17.7 0.00 0.00 0.00 34 1028.1
20190419161505 20 88 8.0 17.7 0.00 0.00 0.00 34 1028.1
20190419161402 20 101 9.7 17.7 0.00 0.00 0.00 34 1028.1
20190419161300 20 101 12.9 17.7 0.00 0.00 0.00 34 1028.0
20190419161159 20 93 12.9 17.7 0.00 0.00 0.00 34 1028.1
20190419161100 21 47 11.3 17.7 0.00 0.00 0.00 35 1028.1
20190419161031 20 98 11.3 17.7 0.00 0.00 0.00 34 1028.0
20190419160946 21 93 11.3 17.7 0.00 0.00 0.00 35 1028.1
20190419160846 21 69 11.3 17.7 0.00 0.00 0.00 35 1028.1
20190419160745 21 80 11.3 17.7 0.00 0.00 0.00 35 1028.1
20190419160616 21 99 11.3 17.7 0.00 0.00 0.00 37 1028.1
20190419160457 21 70 12.9 17.7 0.00 0.00 0.00 36 1028.0
20190419160357 21 97 11.3 17.7 0.00 0.00 0.00 35 1028.0
20190419160256 21 92 11.3 16.1 0.00 0.00 0.00 35 1028.1
20190419160143 21 97 9.7 16.1 0.00 0.00 0.00 36 1028.1
20190419160041 21 89 9.7 16.1 0.00 0.00 0.00 36 1028.1
20190419155938 21 95 9.7 16.1 0.00 0.00 0.00 35 1028.1
20190419155836 21 91 8.0 16.1 0.00 0.00 0.00 36 1028.0
20190419155737 21 103 6.4 16.1 0.00 0.00 0.00 36 1028.0
20190419155623 21 83 8.0 16.1 0.00 0.00 0.00 35 1028.0
20190419155508 21 61 8.0 19.3 0.00 0.00 0.00 36 1028.1
20190419155407 21 82 8.0 19.3 0.00 0.00 0.00 36 1028.1
20190419155302 21 41 8.0 19.3 0.00 0.00 0.00 36 1028.0
20190419155159 21 100 8.0 19.3 0.00 0.00 0.00 36 1028.0
20190419155053 21 70 9.7 19.3 0.00 0.00 0.00 35 1028.0
20190419154948 21 64 9.7 19.3 0.00 0.00 0.00 35 1028.0
20190419154847 21 88 12.9 19.3 0.00 0.00 0.00 35 1028.1
20190419154742 21 99 11.3 19.3 0.00 0.00 0.00 35 1028.1
20190419154614 21 100 9.7 16.1 0.00 0.00 0.00 35 1028.0
20190419154454 21 76 9.7 16.1 0.00 0.00 0.00 33 1028.0
20190419154351 21 109 9.7 16.1 0.00 0.00 0.00 34 1028.1
20190419154251 21 64 11.3 16.1 0.00 0.00 0.00 33 1028.1
20190419154137 21 103 12.9 24.1 0.00 0.00 0.00 33 1028.1
20190419154035 21 101 11.3 24.1 0.00 0.00 0.00 35 1028.0
20190419153929 21 74 9.7 24.1 0.00 0.00 0.00 34 1028.1
20190419153829 21 97 8.0 24.1 0.00 0.00 0.00 34 1028.1
20190419153711 21 88 9.7 24.1 0.00 0.00 0.00 33 1028.1
20190419153545 21 97 11.3 24.1 0.00 0.00 0.00 32 1028.1
20190419153441 21 95 16.1 24.1 0.00 0.00 0.00 33 1028.1
20190419153341 21 96 17.7 24.1 0.00 0.00 0.00 32 1028.1
20190419153241 21 100 16.1 22.5 0.00 0.00 0.00 32 1028.1
20190419153115 21 103 12.9 17.7 0.00 0.00 0.00 31 1028.1
20190419153010 21 81 9.7 16.1 0.00 0.00 0.00 33 1028.1
20190419152911 21 94 8.0 14.5 0.00 0.00 0.00 32 1028.1
20190419152810 21 60 8.0 14.5 0.00 0.00 0.00 31 1028.1
20190419152649 21 99 8.0 22.5 0.00 0.00 0.00 32 1028.1
20190419152540 21 93 8.0 22.5 0.00 0.00 0.00 31 1028.1
20190419152419 21 78 8.0 22.5 0.00 0.00 0.00 31 1028.1
20190419152310 21 83 9.7 22.5 0.00 0.00 0.00 30 1028.1
20190419152209 21 82 11.3 22.5 0.00 0.00 0.00 30 1028.1
20190419152109 21 98 11.3 22.5 0.00 0.00 0.00 32 1028.1
20190419152005 21 93 11.3 22.5 0.00 0.00 0.00 31 1028.1
20190419151903 21 109 12.9 22.5 0.00 0.00 0.00 32 1028.1
20190419151801 21 51 14.5 22.5 0.00 0.00 0.00 31 1028.1
20190419151639 21 107 9.7 20.9 0.00 0.00 0.00 31 1028.1
20190419151514 21 83 8.0 17.7 0.00 0.00 0.00 31 1028.1
20190419151401 21 87 9.7 17.7 0.00 0.00 0.00 31 1028.1
20190419151301 21 61 11.3 17.7 0.00 0.00 0.00 31 1028.2
20190419151159 21 87 11.3 17.7 0.00 0.00 0.00 31 1028.2
20190419151100 21 78 9.7 16.1 0.00 0.00 0.00 31 1028.2
20190419150956 21 77 8.0 16.1 0.00 0.00 0.00 32 1028.1
20190419150856 21 66 6.4 16.1 0.00 0.00 0.00 31 1028.2
20190419150752 21 62 8.0 16.1 0.00 0.00 0.00 31 1028.2
20190419150630 21 78 9.7 16.1 0.00 0.00 0.00 31 1028.1
20190419150545 21 79 9.7 16.1 0.00 0.00 0.00 31 1028.1
20190419150453 21 97 9.7 17.7 0.00 0.00 0.00 32 1028.2
20190419150353 21 80 8.0 17.7 0.00 0.00 0.00 33 1028.2
20190419150122 21 81 8.0 17.7 0.00 0.00 0.00 33 1028.2
20190419145957 21 99 9.7 17.7 0.00 0.00 0.00 32 1028.2
20190419145857 21 26 11.3 19.3 0.00 0.00 0.00 33 1028.2
20190419145731 21 69 9.7 19.3 0.00 0.00 0.00 33 1028.2
20190419145604 21 93 8.0 19.3 0.00 0.00 0.00 33 1028.2
20190419145501 21 66 4.8 19.3 0.00 0.00 0.00 33 1028.2
20190419145400 21 43 8.0 20.9 0.00 0.00 0.00 33 1028.2
20190419145258 21 80 9.7 22.5 0.00 0.00 0.00 33 1028.2
20190419145155 21 97 9.7 22.5 0.00 0.00 0.00 33 1028.2
20190419145057 21 110 6.4 22.5 0.00 0.00 0.00 33 1028.2
20190419144929 21 16 4.8 22.5 0.00 0.00 0.00 33 1028.2
20190419144824 21 91 9.7 22.5 0.00 0.00 0.00 33 1028.2
20190419144725 21 81 14.5 25.7 0.00 0.00 0.00 33 1028.3
20190419144555 21 103 16.1 29.0 0.00 0.00 0.00 33 1028.3
20190419144453 21 103 14.5 29.0 0.00 0.00 0.00 33 1028.3
20190419144350 21 86 14.5 29.0 0.00 0.00 0.00 34 1028.2
20190419144250 21 107 14.5 29.0 0.00 0.00 0.00 34 1028.3
20190419144148 21 99 12.9 29.0 0.00 0.00 0.00 34 1028.3
20190419144047 21 89 12.9 29.0 0.00 0.00 0.00 35 1028.3
20190419143942 21 92 17.7 29.0 0.00 0.00 0.00 35 1028.3
20190419143825 21 98 14.5 29.0 0.00 0.00 0.00 35 1028.3
20190419143710 21 90 9.7 17.7 0.00 0.00 0.00 33 1028.3
20190419143530 21 88 11.3 17.7 0.00 0.00 0.00 34 1028.2
20190419143427 21 100 12.9 20.9 0.00 0.00 0.00 34 1028.2
20190419143322 21 101 11.3 20.9 0.00 0.00 0.00 34 1028.3
20190419143156 21 73 12.9 20.9 0.00 0.00 0.00 34 1028.3
20190419143114 21 95 9.7 20.9 0.00 0.00 0.00 36 1028.2
20190419143055 21 102 11.3 20.9 0.00 0.00 0.00 34 1028.3
20190419142924 21 93 11.3 20.9 0.00 0.00 0.00 35 1028.3
20190419142824 21 99 12.9 20.9 0.00 0.00 0.00 35 1028.3
20190419142722 21 102 16.1 20.9 0.00 0.00 0.00 35 1028.3
20190419142600 21 97 11.3 20.9 0.00 0.00 0.00 36 1028.2
20190419142448 21 72 6.4 20.9 0.00 0.00 0.00 35 1028.3
20190419142312 21 74 8.0 20.9 0.00 0.00 0.00 35 1028.3
20190419142210 21 88 11.3 20.9 0.00 0.00 0.00 35 1028.3
20190419142041 21 96 14.5 20.9 0.00 0.00 0.00 35 1028.3
20190419141938 21 105 12.9 20.9 0.00 0.00 0.00 35 1028.3
20190419141821 21 84 14.5 20.9 0.00 0.00 0.00 34 1028.3
20190419141719 21 82 14.5 20.9 0.00 0.00 0.00 34 1028.4
20190419141552 21 70 12.9 17.7 0.00 0.00 0.00 36 1028.4
20190419141447 21 78 12.9 17.7 0.00 0.00 0.00 36 1028.3
20190419141345 21 97 11.3 19.3 0.00 0.00 0.00 35 1028.3
20190419141219 21 89 11.3 19.3 0.00 0.00 0.00 34 1028.4
20190419141116 21 79 8.0 19.3 0.00 0.00 0.00 36 1028.3
20190419141013 21 74 9.7 19.3 0.00 0.00 0.00 35 1028.4
20190419140852 21 64 12.9 19.3 0.00 0.00 0.00 35 1028.4
20190419140751 21 64 12.9 20.9 0.00 0.00 0.00 36 1028.4
20190419140650 21 64 14.5 20.9 0.00 0.00 0.00 35 1028.4
20190419140553 21 87 12.9 20.9 0.00 0.00 0.00 35 1028.4
20190419140448 21 76 11.3 20.9 0.00 0.00 0.00 36 1028.4
20190419140320 21 93 11.3 20.9 0.00 0.00 0.00 35 1028.4
20190419140216 21 103 12.9 20.9 0.00 0.00 0.00 35 1028.4
20190419140116 21 87 12.9 20.9 0.00 0.00 0.00 35 1028.5
20190419135957 21 81 9.7 20.9 0.00 0.00 0.00 36 1028.4
20190419135837 21 90 6.4 20.9 0.00 0.00 0.00 35 1028.5
20190419135727 21 66 9.7 20.9 0.00 0.00 0.00 36 1028.5
20190419135559 21 102 11.3 27.4 0.00 0.00 0.00 37 1028.5
20190419135453 21 112 8.0 27.4 0.00 0.00 0.00 36 1028.6
20190419135336 21 39 8.0 27.4 0.00 0.00 0.00 36 1028.5
20190419135236 21 93 9.7 27.4 0.00 0.00 0.00 36 1028.6
20190419135133 21 81 12.9 27.4 0.00 0.00 0.00 36 1028.6
20190419135030 21 89 16.1 27.4 0.00 0.00 0.00 35 1028.6
20190419134927 21 99 14.5 27.4 0.00 0.00 0.00 35 1028.6
20190419134825 21 101 11.3 19.3 0.00 0.00 0.00 36 1028.6
20190419134657 21 105 12.9 19.3 0.00 0.00 0.00 35 1028.6
20190419134531 21 98 11.3 19.3 0.00 0.00 0.00 37 1028.6
20190419134426 21 93 11.3 22.5 0.00 0.00 0.00 36 1028.6
20190419134323 21 92 12.9 27.4 0.00 0.00 0.00 36 1028.6
20190419134214 21 112 12.9 27.4 0.00 0.00 0.00 36 1028.7
20190419134109 21 112 12.9 27.4 0.00 0.00 0.00 36 1028.6
20190419134010 21 110 12.9 27.4 0.00 0.00 0.00 37 1028.7
20190419133850 21 114 12.9 27.4 0.00 0.00 0.00 36 1028.7
20190419133734 21 109 16.1 27.4 0.00 0.00 0.00 36 1028.7
20190419133631 21 99 16.1 27.4 0.00 0.00 0.00 37 1028.7
20190419133503 21 97 11.3 27.4 0.00 0.00 0.00 37 1028.7
20190419133345 21 91 11.3 29.0 0.00 0.00 0.00 37 1028.7
20190419133242 21 95 12.9 29.0 0.00 0.00 0.00 37 1028.7
20190419133139 21 72 8.0 29.0 0.00 0.00 0.00 38 1028.7
20190419133039 21 88 6.4 29.0 0.00 0.00 0.00 37 1028.7
20190419133023 21 86 6.4 29.0 0.00 0.00 0.00 37 1028.6
20190419132925 21 45 8.0 29.0 0.00 0.00 0.00 36 1028.7
20190419132823 21 16 9.7 29.0 0.00 0.00 0.00 37 1028.7
20190419132724 21 76 11.3 29.0 0.00 0.00 0.00 37 1028.7
20190419132624 21 101 14.5 29.0 0.00 0.00 0.00 38 1028.8
20190419132508 21 109 11.3 24.1 0.00 0.00 0.00 37 1028.8
20190419132349 21 80 9.7 19.3 0.00 0.00 0.00 37 1028.8
20190419132230 21 70 11.3 19.3 0.00 0.00 0.00 37 1028.8
20190419132117 21 62 11.3 19.3 0.00 0.00 0.00 38 1028.7
20190419132000 21 53 11.3 19.3 0.00 0.00 0.00 37 1028.8
20190419131859 21 105 11.3 19.3 0.00 0.00 0.00 36 1028.8
20190419131757 21 87 12.9 20.9 0.00 0.00 0.00 37 1028.9
20190419131657 21 105 12.9 20.9 0.00 0.00 0.00 38 1028.9
20190419131532 21 106 12.9 20.9 0.00 0.00 0.00 38 1028.9
20190419131428 21 97 8.0 20.9 0.00 0.00 0.00 38 1028.9
20190419131329 21 101 6.4 20.9 0.00 0.00 0.00 37 1028.9
20190419131226 21 92 6.4 20.9 0.00 0.00 0.00 37 1028.9
20190419131126 21 66 11.3 20.9 0.00 0.00 0.00 37 1028.9
20190419131106 21 62 11.3 20.9 0.00 0.00 0.00 37 1028.9
20190419130952 21 106 9.7 20.9 0.00 0.00 0.00 37 1028.9
20190419130852 21 47 8.0 19.3 0.00 0.00 0.00 38 1028.9
20190419130734 21 89 9.7 25.7 0.00 0.00 0.00 37 1028.9
20190419130602 21 104 11.3 25.7 0.00 0.00 0.00 37 1029.0
20190419130437 21 59 14.5 25.7 0.00 0.00 0.00 37 1028.9
20190419130337 21 90 14.5 25.7 0.00 0.00 0.00 38 1029.0
20190419130236 21 95 14.5 25.7 0.00 0.00 0.00 38 1029.0
20190419130132 21 100 16.1 25.7 0.00 0.00 0.00 37 1029.0
20190419130015 21 89 11.3 25.7 0.00 0.00 0.00 38 1029.0
20190419125902 21 49 4.8 20.9 0.00 0.00 0.00 38 1028.9
20190419125800 21 95 8.0 20.9 0.00 0.00 0.00 37 1029.0
20190419125659 21 92 9.7 20.9 0.00 0.00 0.00 37 1029.0
20190419125531 21 83 12.9 20.9 0.00 0.00 0.00 37 1029.0
20190419125413 21 87 12.9 20.9 0.00 0.00 0.00 37 1029.1
20190419125313 21 97 9.7 20.9 0.00 0.00 0.00 39 1029.1
20190419125153 21 91 8.0 20.9 0.00 0.00 0.00 38 1029.1
20190419125042 21 95 4.8 20.9 0.00 0.00 0.00 39 1029.1
20190419124935 21 64 8.0 22.5 0.00 0.00 0.00 39 1029.1
20190419124833 21 43 9.7 25.7 0.00 0.00 0.00 38 1029.1
20190419124714 21 72 12.9 25.7 0.00 0.00 0.00 38 1029.1
20190419124613 21 73 14.5 25.7 0.00 0.00 0.00 39 1029.1
20190419124448 21 60 16.1 25.7 0.00 0.00 0.00 38 1029.1
20190419124348 21 81 14.5 25.7 0.00 0.00 0.00 38 1029.1
20190419124247 21 87 16.1 25.7 0.00 0.00 0.00 38 1029.1
20190419124122 21 73 19.3 25.7 0.00 0.00 0.00 38 1029.1
20190419124018 21 91 14.5 25.7 0.00 0.00 0.00 39 1029.2
20190419123858 21 63 8.0 19.3 0.00 0.00 0.00 40 1029.2
20190419123755 21 80 11.3 19.3 0.00 0.00 0.00 39 1029.2
20190419123655 21 80 11.3 19.3 0.00 0.00 0.00 38 1029.2
20190419123521 21 93 9.7 19.3 0.00 0.00 0.00 37 1029.3
20190419123414 21 106 14.5 19.3 0.00 0.00 0.00 38 1029.3
20190419123312 21 75 12.9 19.3 0.00 0.00 0.00 38 1029.2
20190419123212 21 71 9.7 19.3 0.00 0.00 0.00 38 1029.3
20190419123110 21 90 9.7 22.5 0.00 0.00 0.00 38 1029.2
20190419123005 21 45 11.3 24.1 0.00 0.00 0.00 39 1029.3
20190419122847 21 80 6.4 24.1 0.00 0.00 0.00 39 1029.3
20190419122746 21 35 6.4 24.1 0.00 0.00 0.00 38 1029.3
20190419122645 21 44 8.0 27.4 0.00 0.00 0.00 39 1029.3
20190419122500 21 101 11.3 27.4 0.00 0.00 0.00 37 1029.4
20190419122341 21 96 17.7 27.4 0.00 0.00 0.00 37 1029.4
20190419122241 21 84 16.1 27.4 0.00 0.00 0.00 38 1029.3
20190419122142 21 63 16.1 27.4 0.00 0.00 0.00 38 1029.3
20190419122042 21 87 17.7 27.4 0.00 0.00 0.00 38 1029.3
20190419121939 21 98 19.3 27.4 0.00 0.00 0.00 37 1029.3
20190419121840 21 85 19.3 25.7 0.00 0.00 0.00 39 1029.3
20190419121741 21 97 17.7 24.1 0.00 0.00 0.00 38 1029.3
20190419121639 21 94 12.9 24.1 0.00 0.00 0.00 38 1029.3
20190419121507 21 81 8.0 19.3 0.00 0.00 0.00 37 1029.3
20190419121403 21 98 8.0 19.3 0.00 0.00 0.00 39 1029.3
20190419121302 21 94 8.0 27.4 0.00 0.00 0.00 38 1029.3
20190419121200 21 23 8.0 27.4 0.00 0.00 0.00 39 1029.4
20190419121059 21 84 9.7 27.4 0.00 0.00 0.00 38 1029.3
20190419120955 21 55 12.9 27.4 0.00 0.00 0.00 38 1029.3
20190419120839 21 90 8.0 27.4 0.00 0.00 0.00 38 1029.4
20190419120758 21 90 9.7 27.4 0.00 0.00 0.00 38 1029.3
20190419120638 21 33 16.1 27.4 0.00 0.00 0.00 37 1029.4
20190419120503 21 101 14.5 27.4 0.00 0.00 0.00 38 1029.3
20190419120356 21 97 12.9 22.5 0.00 0.00 0.00 38 1029.4
20190419120253 21 112 14.5 22.5 0.00 0.00 0.00 38 1029.3
20190419120155 21 49 16.1 22.5 0.00 0.00 0.00 38 1029.3
20190419120055 21 113 16.1 22.5 0.00 0.00 0.00 38 1029.4
20190419115950 21 91 16.1 22.5 0.00 0.00 0.00 38 1029.3
20190419115849 21 95 16.1 22.5 0.00 0.00 0.00 38 1029.4
20190419115748 21 108 14.5 20.9 0.00 0.00 0.00 39 1029.4
20190419115629 21 93 12.9 20.9 0.00 0.00 0.00 39 1029.4
20190419115550 20 70 11.3 20.9 0.00 0.00 0.00 38 1029.3
20190419115348 20 47 14.5 19.3 0.00 0.00 0.00 39 1029.4
20190419115246 20 68 12.9 19.3 0.00 0.00 0.00 39 1029.4
20190419115142 20 75 9.7 17.7 0.00 0.00 0.00 39 1029.4
20190419115043 21 78 8.0 17.7 0.00 0.00 0.00 37 1029.4
20190419114938 21 78 12.9 17.7 0.00 0.00 0.00 37 1029.4
20190419114822 21 66 11.3 19.3 0.00 0.00 0.00 38 1029.5
20190419114722 21 78 8.0 27.4 0.00 0.00 0.00 38 1029.5
20190419114632 20 94 8.0 27.4 0.00 0.00 0.00 38 1029.5
20190419114619 21 76 8.0 27.4 0.00 0.00 0.00 38 1029.5
20190419114446 21 65 12.9 27.4 0.00 0.00 0.00 38 1029.5
20190419114342 21 93 12.9 27.4 0.00 0.00 0.00 37 1029.5
20190419114241 21 107 11.3 27.4 0.00 0.00 0.00 38 1029.5
20190419114124 21 80 11.3 27.4 0.00 0.00 0.00 38 1029.5
20190419114003 21 97 16.1 27.4 0.00 0.00 0.00 38 1029.5
20190419113902 21 99 17.7 27.4 0.00 0.00 0.00 38 1029.4
20190419113803 21 105 16.1 25.7 0.00 0.00 0.00 38 1029.5
20190419113650 21 99 16.1 25.7 0.00 0.00 0.00 40 1029.5
20190419113534 20 72 14.5 25.7 0.00 0.00 0.00 40 1029.5
20190419113402 20 77 11.3 24.1 0.00 0.00 0.00 38 1029.5
20190419113301 20 94 12.9 24.1 0.00 0.00 0.00 39 1029.5
20190419113157 20 61 11.3 25.7 0.00 0.00 0.00 41 1029.5
20190419113057 20 71 8.0 25.7 0.00 0.00 0.00 40 1029.5
20190419112954 20 78 8.0 25.7 0.00 0.00 0.00 38 1029.4
20190419112828 20 79 9.7 25.7 0.00 0.00 0.00 38 1029.5
20190419112727 20 100 12.9 25.7 0.00 0.00 0.00 38 1029.5
20190419112627 20 87 16.1 25.7 0.00 0.00 0.00 37 1029.6
20190419112451 20 90 17.7 25.7 0.00 0.00 0.00 38 1029.6
20190419112315 20 101 14.5 20.9 0.00 0.00 0.00 37 1029.5
20190419112147 20 82 11.3 25.7 0.00 0.00 0.00 38 1029.5
20190419112045 20 90 12.9 25.7 0.00 0.00 0.00 40 1029.6
20190419111941 20 61 14.5 25.7 0.00 0.00 0.00 39 1029.6
20190419111837 20 105 12.9 25.7 0.00 0.00 0.00 39 1029.6
20190419111735 20 96 12.9 25.7 0.00 0.00 0.00 39 1029.6
20190419111618 20 74 14.5 25.7 0.00 0.00 0.00 38 1029.6
20190419111448 20 97 16.1 25.7 0.00 0.00 0.00 40 1029.6
20190419111321 20 114 11.3 22.5 0.00 0.00 0.00 43 1029.6
20190419111208 20 80 8.0 22.5 0.00 0.00 0.00 42 1029.6
20190419111107 20 76 6.4 22.5 0.00 0.00 0.00 42 1029.6
20190419110948 20 68 9.7 24.1 0.00 0.00 0.00 40 1029.6
20190419110843 20 98 11.3 24.1 0.00 0.00 0.00 42 1029.7
20190419110744 20 100 9.7 25.7 0.00 0.00 0.00 42 1029.7
20190419110642 20 103 8.0 25.7 0.00 0.00 0.00 41 1029.6
20190419110540 20 11 11.3 25.7 0.00 0.00 0.00 41 1029.7
20190419110520 20 16 11.3 25.7 0.00 0.00 0.00 41 1029.7
20190419110405 20 92 14.5 25.7 0.00 0.00 0.00 39 1029.8
20190419110305 20 97 17.7 25.7 0.00 0.00 0.00 39 1029.8
20190419110200 20 78 19.3 25.7 0.00 0.00 0.00 38 1029.8
20190419110100 20 96 19.3 25.7 0.00 0.00 0.00 39 1029.8
20190419105957 20 80 17.7 25.7 0.00 0.00 0.00 39 1029.8
20190419105852 20 77 14.5 22.5 0.00 0.00 0.00 41 1029.7
20190419105750 20 86 12.9 19.3 0.00 0.00 0.00 43 1029.7
20190419105649 20 76 9.7 19.3 0.00 0.00 0.00 43 1029.8
20190419105552 20 78 9.7 19.3 0.00 0.00 0.00 42 1029.7
20190419105427 20 104 11.3 19.3 0.00 0.00 0.00 41 1029.8
20190419105313 20 76 12.9 19.3 0.00 0.00 0.00 42 1029.9
20190419105208 20 90 11.3 19.3 0.00 0.00 0.00 42 1029.8
20190419105106 20 71 9.7 19.3 0.00 0.00 0.00 41 1029.8
20190419104947 20 57 9.7 19.3 0.00 0.00 0.00 43 1029.9
20190419104846 20 75 9.7 19.3 0.00 0.00 0.00 42 1029.8
20190419104745 20 96 12.9 24.1 0.00 0.00 0.00 41 1029.9
20190419104642 20 91 11.3 24.1 0.00 0.00 0.00 43 1029.9
20190419104540 20 100 8.0 24.1 0.00 0.00 0.00 44 1029.9
20190419104413 20 76 4.8 24.1 0.00 0.00 0.00 42 1030.0
20190419104243 20 42 9.7 24.1 0.00 0.00 0.00 43 1029.9
20190419104141 20 101 12.9 24.1 0.00 0.00 0.00 43 1030.0
20190419104042 20 91 16.1 24.1 0.00 0.00 0.00 44 1030.0
20190419103936 20 89 17.7 24.1 0.00 0.00 0.00 43 1030.0
20190419103815 20 81 12.9 22.5 0.00 0.00 0.00 43 1029.9
20190419103715 20 97 11.3 22.5 0.00 0.00 0.00 43 1029.9
20190419103620 20 109 9.7 22.5 0.00 0.00 0.00 44 1030.0
20190419103556 19 97 8.0 22.5 0.00 0.00 0.00 42 1030.0
20190419103446 20 103 12.9 22.5 0.00 0.00 0.00 43 1030.0
20190419103339 20 99 12.9 22.5 0.00 0.00 0.00 44 1030.0
20190419103238 20 59 11.3 22.5 0.00 0.00 0.00 44 1030.0
20190419103137 19 36 9.7 17.7 0.00 0.00 0.00 45 1030.0
20190419103038 19 71 11.3 17.7 0.00 0.00 0.00 44 1030.1
20190419102938 19 104 14.5 17.7 0.00 0.00 0.00 43 1030.1
20190419102840 19 94 11.3 17.7 0.00 0.00 0.00 44 1030.1
20190419102737 19 102 6.4 17.7 0.00 0.00 0.00 45 1030.1
20190419102637 19 34 6.4 17.7 0.00 0.00 0.00 45 1030.1
20190419102530 19 351 8.0 17.7 0.00 0.00 0.00 46 1030.1
20190419102342 19 87 8.0 17.7 0.00 0.00 0.00 45 1030.2
20190419102242 19 96 6.4 17.7 0.00 0.00 0.00 45 1030.1
20190419102140 19 72 8.0 17.7 0.00 0.00 0.00 44 1030.2
20190419102038 19 67 8.0 17.7 0.00 0.00 0.00 46 1030.2
20190419101935 19 66 9.7 19.3 0.00 0.00 0.00 46 1030.2
20190419101835 19 108 9.7 19.3 0.00 0.00 0.00 46 1030.1
20190419101731 19 102 9.7 19.3 0.00 0.00 0.00 45 1030.2
20190419101634 19 71 9.7 19.3 0.00 0.00 0.00 46 1030.2
20190419101533 19 62 11.3 19.3 0.00 0.00 0.00 45 1030.2
20190419101407 19 95 11.3 19.3 0.00 0.00 0.00 46 1030.2
20190419101303 19 72 14.5 19.3 0.00 0.00 0.00 45 1030.2
20190419101204 19 83 12.9 19.3 0.00 0.00 0.00 45 1030.2
20190419101040 19 78 8.0 16.1 0.00 0.00 0.00 45 1030.3
20190419100933 19 101 6.4 16.1 0.00 0.00 0.00 47 1030.2
20190419100832 18 84 8.0 16.1 0.00 0.00 0.00 46 1030.3
20190419100732 18 104 6.4 17.7 0.00 0.00 0.00 47 1030.3
20190419100608 18 73 8.0 17.7 0.00 0.00 0.00 47 1030.3
20190419100544 18 91 9.7 17.7 0.00 0.00 0.00 46 1030.3
20190419100429 18 72 11.3 17.7 0.00 0.00 0.00 46 1030.3
20190419100301 18 89 11.3 17.7 0.00 0.00 0.00 48 1030.3
20190419100132 18 108 8.0 17.7 0.00 0.00 0.00 48 1030.3
20190419100031 18 91 9.7 17.7 0.00 0.00 0.00 47 1030.3
20190419095925 18 87 12.9 17.7 0.00 0.00 0.00 47 1030.3
20190419095825 18 104 12.9 17.7 0.00 0.00 0.00 48 1030.3
20190419095659 18 87 12.9 17.7 0.00 0.00 0.00 48 1030.3
20190419095559 18 98 12.9 17.7 0.00 0.00 0.00 47 1030.4
20190419095457 18 99 12.9 17.7 0.00 0.00 0.00 47 1030.4
20190419095330 18 91 11.3 17.7 0.00 0.00 0.00 47 1030.4
20190419095226 18 71 11.3 17.7 0.00 0.00 0.00 47 1030.4
20190419095107 18 112 11.3 17.7 0.00 0.00 0.00 47 1030.4
20190419095005 18 94 11.3 17.7 0.00 0.00 0.00 46 1030.4
20190419094905 18 85 9.7 17.7 0.00 0.00 0.00 47 1030.4
20190419094734 18 95 9.7 17.7 0.00 0.00 0.00 50 1030.4
20190419094632 18 86 9.7 17.7 0.00 0.00 0.00 48 1030.4
20190419094530 18 103 9.7 17.7 0.00 0.00 0.00 48 1030.5
20190419094401 18 73 12.9 17.7 0.00 0.00 0.00 48 1030.5
20190419094301 18 97 9.7 17.7 0.00 0.00 0.00 48 1030.5
20190419094200 18 56 6.4 17.7 0.00 0.00 0.00 48 1030.5
20190419094100 18 51 8.0 17.7 0.00 0.00 0.00 49 1030.5
20190419093959 18 77 11.3 17.7 0.00 0.00 0.00 49 1030.5
20190419093847 18 81 12.9 17.7 0.00 0.00 0.00 46 1030.6
20190419093733 18 64 9.7 17.7 0.00 0.00 0.00 49 1030.6
20190419093632 18 85 9.7 17.7 0.00 0.00 0.00 49 1030.5
20190419093531 18 114 9.7 17.7 0.00 0.00 0.00 49 1030.6
20190419093355 18 49 9.7 17.7 0.00 0.00 0.00 50 1030.6
20190419093252 18 41 9.7 17.7 0.00 0.00 0.00 50 1030.6
20190419093125 18 70 11.3 16.1 0.00 0.00 0.00 49 1030.6
20190419093004 18 78 9.7 19.3 0.00 0.00 0.00 50 1030.7
20190419092902 17 70 9.7 19.3 0.00 0.00 0.00 50 1030.7
20190419092803 17 56 9.7 19.3 0.00 0.00 0.00 50 1030.7
20190419092703 17 83 8.0 19.3 0.00 0.00 0.00 50 1030.7
20190419092546 17 83 9.7 19.3 0.00 0.00 0.00 51 1030.7
20190419092404 17 97 12.9 19.3 0.00 0.00 0.00 50 1030.7
20190419092131 17 99 11.3 17.7 0.00 0.00 0.00 52 1030.8
20190419092027 17 91 11.3 17.7 0.00 0.00 0.00 51 1030.8
20190419091820 17 89 9.7 17.7 0.00 0.00 0.00 52 1030.8
20190419091653 17 85 8.0 17.7 0.00 0.00 0.00 51 1030.8
20190419091552 17 76 9.7 17.7 0.00 0.00 0.00 51 1030.8
20190419091447 17 102 9.7 17.7 0.00 0.00 0.00 53 1030.8
20190419091319 17 76 9.7 17.7 0.00 0.00 0.00 52 1030.8
20190419091215 17 46 9.7 17.7 0.00 0.00 0.00 52 1030.8
20190419091114 17 96 9.7 17.7 0.00 0.00 0.00 52 1030.8
20190419091043 17 56 9.7 17.7 0.00 0.00 0.00 52 1030.9
20190419090948 17 101 11.3 17.7 0.00 0.00 0.00 52 1030.9
20190419090849 17 76 11.3 17.7 0.00 0.00 0.00 52 1030.9
20190419090746 17 112 9.7 17.7 0.00 0.00 0.00 52 1030.8
20190419090512 17 95 12.9 17.7 0.00 0.00 0.00 52 1030.8
20190419090351 17 68 11.3 17.7 0.00 0.00 0.00 52 1030.8
20190419090254 17 84 11.3 17.7 0.00 0.00 0.00 52 1030.8
20190419090154 17 57 9.7 17.7 0.00 0.00 0.00 52 1030.8
20190419090042 17 90 9.7 17.7 0.00 0.00 0.00 53 1030.8
20190419085940 17 81 9.7 17.7 0.00 0.00 0.00 54 1030.8
20190419085839 17 35 11.3 17.7 0.00 0.00 0.00 53 1030.8
20190419085739 16 106 12.9 17.7 0.00 0.00 0.00 53 1030.8
20190419085641 16 71 12.9 17.7 0.00 0.00 0.00 53 1030.8
20190419085540 16 92 11.3 16.1 0.00 0.00 0.00 53 1030.9
20190419085436 16 82 11.3 16.1 0.00 0.00 0.00 54 1030.9
20190419085309 16 95 11.3 19.3 0.00 0.00 0.00 53 1030.9
20190419085204 16 73 9.7 19.3 0.00 0.00 0.00 52 1030.9
20190419085052 16 114 11.3 19.3 0.00 0.00 0.00 53 1030.9
20190419084934 16 81 11.3 19.3 0.00 0.00 0.00 54 1030.9
20190419084832 16 83 9.7 19.3 0.00 0.00 0.00 53 1030.9
20190419084730 16 109 8.0 19.3 0.00 0.00 0.00 54 1030.9
20190419084627 16 103 11.3 19.3 0.00 0.00 0.00 54 1030.9
20190419084527 16 53 11.3 19.3 0.00 0.00 0.00 53 1030.9
20190419084422 16 95 12.9 19.3 0.00 0.00 0.00 54 1030.9
20190419084301 16 71 12.9 19.3 0.00 0.00 0.00 54 1030.9
20190419084159 16 89 9.7 19.3 0.00 0.00 0.00 55 1030.9
20190419084049 16 109 11.3 19.3 0.00 0.00 0.00 55 1030.9
20190419083948 16 83 12.9 19.3 0.00 0.00 0.00 53 1030.9
20190419083826 16 97 12.9 19.3 0.00 0.00 0.00 54 1030.9
20190419083711 16 87 12.9 19.3 0.00 0.00 0.00 54 1030.9
20190419083607 16 103 11.3 19.3 0.00 0.00 0.00 54 1031.0
20190419083504 16 96 12.9 17.7 0.00 0.00 0.00 54 1030.9
20190419083328 16 106 11.3 17.7 0.00 0.00 0.00 54 1030.9
20190419083224 16 80 12.9 17.7 0.00 0.00 0.00 54 1031.0
20190419083121 16 97 12.9 17.7 0.00 0.00 0.00 55 1031.0
20190419083002 16 93 12.9 17.7 0.00 0.00 0.00 55 1031.0
20190419082856 15 96 11.3 17.7 0.00 0.00 0.00 55 1031.0
20190419082733 15 97 9.7 16.1 0.00 0.00 0.00 56 1031.0
20190419082602 15 76 8.0 17.7 0.00 0.00 0.00 56 1031.0
20190419082449 15 57 8.0 17.7 0.00 0.00 0.00 56 1031.1
20190419082311 15 66 12.9 17.7 0.00 0.00 0.00 55 1031.1
20190419082210 15 91 12.9 17.7 0.00 0.00 0.00 56 1031.1
20190419082042 15 57 9.7 17.7 0.00 0.00 0.00 56 1031.1
20190419081940 15 97 11.3 17.7 0.00 0.00 0.00 55 1031.1
20190419081841 15 80 11.3 17.7 0.00 0.00 0.00 56 1031.1
20190419081723 15 105 9.7 14.5 0.00 0.00 0.00 56 1031.1
20190419081631 15 70 6.4 14.5 0.00 0.00 0.00 56 1031.1
20190419081602 15 85 8.0 14.5 0.00 0.00 0.00 56 1031.1
20190419081431 15 97 8.0 14.5 0.00 0.00 0.00 57 1031.1
20190419081308 15 72 8.0 14.5 0.00 0.00 0.00 56 1031.1
20190419081203 15 87 9.7 14.5 0.00 0.00 0.00 57 1031.1
20190419081048 15 95 9.7 14.5 0.00 0.00 0.00 56 1031.1
20190419080945 15 111 8.0 14.5 0.00 0.00 0.00 57 1031.1
20190419080846 15 70 9.7 14.5 0.00 0.00 0.00 57 1031.1
20190419080746 15 78 11.3 16.1 0.00 0.00 0.00 57 1031.1
20190419080645 15 101 9.7 16.1 0.00 0.00 0.00 57 1031.1
20190419080517 15 67 9.7 16.1 0.00 0.00 0.00 57 1031.1
20190419080414 15 113 9.7 17.7 0.00 0.00 0.00 57 1031.1
20190419080249 15 94 8.0 17.7 0.00 0.00 0.00 58 1031.1
20190419080147 15 116 8.0 17.7 0.00 0.00 0.00 57 1031.1
20190419080045 15 103 9.7 17.7 0.00 0.00 0.00 56 1031.2
20190419075942 14 79 9.7 17.7 0.00 0.00 0.00 57 1031.2
20190419075845 14 74 11.3 17.7 0.00 0.00 0.00 57 1031.1
20190419075744 14 89 12.9 17.7 0.00 0.00 0.00 57 1031.2
20190419075634 14 107 11.3 17.7 0.00 0.00 0.00 58 1031.2
20190419075534 14 94 11.3 16.1 0.00 0.00 0.00 58 1031.1
20190419075429 14 96 11.3 16.1 0.00 0.00 0.00 58 1031.1
20190419075251 14 92 9.7 16.1 0.00 0.00 0.00 59 1031.1
20190419075152 14 103 9.7 16.1 0.00 0.00 0.00 58 1031.1
20190419075052 14 76 11.3 19.3 0.00 0.00 0.00 59 1031.2
20190419074951 14 64 11.3 19.3 0.00 0.00 0.00 60 1031.2
20190419074847 14 86 11.3 19.3 0.00 0.00 0.00 59 1031.2
20190419074747 14 102 9.7 19.3 0.00 0.00 0.00 59 1031.1
20190419074646 13 101 9.7 19.3 0.00 0.00 0.00 59 1031.2
20190419074518 13 71 11.3 19.3 0.00 0.00 0.00 60 1031.1
20190419074419 13 73 12.9 19.3 0.00 0.00 0.00 58 1031.1
20190419074251 13 94 12.9 19.3 0.00 0.00 0.00 58 1031.1
20190419074148 13 91 9.7 17.7 0.00 0.00 0.00 58 1031.1
20190419074048 13 94 9.7 14.5 0.00 0.00 0.00 59 1031.0
20190419073943 13 88 8.0 14.5 0.00 0.00 0.00 59 1031.1
20190419073827 13 93 8.0 14.5 0.00 0.00 0.00 60 1031.1
20190419073725 13 89 9.7 14.5 0.00 0.00 0.00 59 1031.0
20190419073626 13 95 9.7 14.5 0.00 0.00 0.00 59 1031.0
20190419073525 13 91 9.7 14.5 0.00 0.00 0.00 60 1031.0
20190419073404 13 72 9.7 14.5 0.00 0.00 0.00 60 1030.9
20190419073300 13 94 11.3 14.5 0.00 0.00 0.00 60 1031.0
20190419073202 13 104 11.3 14.5 0.00 0.00 0.00 60 1031.0
20190419073102 13 107 12.9 14.5 0.00 0.00 0.00 60 1031.0
20190419072958 13 106 11.3 14.5 0.00 0.00 0.00 61 1031.0
20190419072859 13 101 8.0 14.5 0.00 0.00 0.00 60 1030.9
20190419072758 13 106 8.0 14.5 0.00 0.00 0.00 62 1031.0
20190419072656 13 116 8.0 14.5 0.00 0.00 0.00 62 1030.9
20190419072543 13 93 6.4 14.5 0.00 0.00 0.00 61 1030.9
20190419072422 13 82 8.0 14.5 0.00 0.00 0.00 61 1031.0
20190419072300 13 106 9.7 14.5 0.00 0.00 0.00 60 1030.9
20190419072136 13 101 11.3 14.5 0.00 0.00 0.00 62 1031.0
20190419072036 13 87 9.7 14.5 0.00 0.00 0.00 61 1031.0
20190419072014 13 97 9.7 14.5 0.00 0.00 0.00 62 1031.1
20190419071907 13 91 8.0 14.5 0.00 0.00 0.00 62 1031.0
20190419071702 13 103 12.9 16.1 0.00 0.00 0.00 61 1031.0
20190419071601 13 98 11.3 16.1 0.00 0.00 0.00 61 1031.0
20190419071457 13 104 11.3 16.1 0.00 0.00 0.00 61 1031.0
20190419071354 13 103 11.3 17.7 0.00 0.00 0.00 61 1031.0
20190419071226 13 97 11.3 17.7 0.00 0.00 0.00 61 1031.0
20190419071126 13 99 11.3 17.7 0.00 0.00 0.00 61 1031.1
20190419071026 13 104 11.3 17.7 0.00 0.00 0.00 63 1031.1
20190419070922 13 89 12.9 17.7 0.00 0.00 0.00 62 1031.0
20190419070819 13 99 12.9 17.7 0.00 0.00 0.00 61 1031.1
20190419070720 13 110 12.9 17.7 0.00 0.00 0.00 62 1031.1
20190419070620 13 112 14.5 17.7 0.00 0.00 0.00 62 1031.1
20190419070521 13 104 12.9 17.7 0.00 0.00 0.00 62 1031.1
20190419070418 13 105 12.9 16.1 0.00 0.00 0.00 62 1031.1
20190419070246 13 97 11.3 16.1 0.00 0.00 0.00 62 1031.1
20190419070140 13 91 11.3 16.1 0.00 0.00 0.00 62 1031.0
20190419070039 13 99 11.3 16.1 0.00 0.00 0.00 63 1031.1
20190419065918 13 117 11.3 16.1 0.00 0.00 0.00 62 1031.0
20190419065800 13 78 11.3 16.1 0.00 0.00 0.00 63 1030.9
20190419065701 12 85 12.9 16.1 0.00 0.00 0.00 62 1031.0
20190419065601 12 99 12.9 16.1 0.00 0.00 0.00 64 1031.0
20190419065538 12 100 11.3 16.1 0.00 0.00 0.00 63 1031.0
20190419065432 12 120 12.9 17.7 0.00 0.00 0.00 63 1030.9
20190419065311 12 97 12.9 17.7 0.00 0.00 0.00 62 1031.0
20190419065204 12 101 12.9 17.7 0.00 0.00 0.00 63 1031.0
20190419065104 12 99 12.9 17.7 0.00 0.00 0.00 63 1031.0
20190419065000 12 103 12.9 17.7 0.00 0.00 0.00 63 1030.9
20190419064856 12 107 11.3 17.7 0.00 0.00 0.00 63 1031.0
20190419064753 12 109 9.7 17.7 0.00 0.00 0.00 64 1030.9
20190419064627 12 102 12.9 17.7 0.00 0.00 0.00 63 1031.0
20190419064504 12 95 12.9 17.7 0.00 0.00 0.00 64 1031.0
20190419064344 12 118 11.3 17.7 0.00 0.00 0.00 64 1030.9
20190419064208 12 99 11.3 17.7 0.00 0.00 0.00 65 1030.9
20190419064107 12 87 8.0 17.7 0.00 0.00 0.00 66 1030.9